GFSSW_925_thetae_033.txt.gz
Theta_e
310 311 310 310 310 310 310 310 310 310 309 308 308 308 309 310 311 313 315 312 316 317 315 315 315 316 316 316 314 311 312 312 316 320 316 319 317 317 324 329 327 326 324 327 328
311 311 311 311 311 310 310 310 310 310 309 308 308 309 310 311 313 317 313 314 315 316 316 314 314 314 314 315 314 312 311 312 311 317 319 313 325 323 329 330 328 323 321 324 322
311 311 311 310 310 310 310 310 310 310 309 308 308 310 310 312 319 317 319 317 316 317 315 315 315 315 316 314 312 311 310 310 311 312 311 312 316 318 329 331 328 324 322 320 321
311 311 311 310 310 310 310 311 311 310 309 309 309 310 311 315 317 318 317 318 318 317 315 315 316 319 318 315 313 312 311 311 312 310 310 311 311 321 319 329 326 323 321 320 321
312 311 310 310 310 310 311 311 311 309 309 309 310 311 315 321 317 318 319 316 317 316 315 316 318 318 315 313 311 311 311 311 311 310 309 310 313 312 313 325 325 323 321 321 321
311 311 311 311 311 311 311 311 310 309 309 309 310 312 317 315 317 318 318 317 316 315 317 317 318 317 315 313 311 311 310 310 312 312 313 313 313 314 315 325 326 325 323 321 320
311 311 311 311 311 311 311 311 310 309 309 310 311 315 320 317 317 316 317 317 316 317 317 318 319 316 314 312 311 310 311 311 312 313 314 312 315 314 315 326 327 326 325 323 321
311 311 311 311 311 311 311 310 310 309 310 311 313 317 318 315 317 318 318 316 317 317 319 318 317 316 315 312 312 313 311 313 314 313 313 313 313 314 318 327 328 326 324 320 320
311 311 311 311 311 311 310 310 309 310 311 313 315 319 314 315 317 317 316 315 318 318 319 318 317 314 313 312 312 311 314 315 316 313 314 314 315 313 313 326 319 317 319 320 318
311 311 311 310 310 310 310 309 311 312 313 315 317 318 317 317 317 316 316 316 317 317 316 315 313 312 311 311 312 315 316 315 315 315 315 314 314 311 309 311 318 318 318 318 317
312 311 310 309 309 309 309 312 314 316 317 312 314 318 319 317 314 315 316 317 317 315 317 316 314 315 314 314 315 315 315 316 315 314 313 313 313 313 316 319 319 319 318 317 317
312 312 310 309 309 310 313 316 316 320 317 317 318 318 318 318 315 315 317 317 317 317 318 315 317 316 316 318 317 317 316 317 317 316 313 316 315 316 317 318 319 319 318 317 315
313 313 312 311 311 312 313 319 323 319 321 318 315 315 316 316 315 316 317 317 318 318 317 316 316 317 317 317 321 320 319 319 318 315 313 316 316 317 317 317 318 317 317 316 315
313 313 313 313 313 313 313 317 326 325 313 315 316 315 316 316 316 316 316 317 318 317 315 316 318 319 318 318 319 322 320 319 318 315 316 314 318 318 317 317 318 318 316 316 316
313 314 313 313 319 322 324 325 327 321 316 312 316 315 315 317 316 315 316 317 317 317 316 318 319 319 319 319 318 320 318 319 319 317 317 318 317 315 317 319 318 317 317 317 316
313 314 314 313 318 326 325 325 323 320 315 315 316 315 316 317 316 316 316 316 317 316 315 318 317 318 318 318 318 318 320 319 319 318 320 321 317 316 317 318 317 316 316 317 315
313 317 316 321 327 326 323 315 314 321 317 316 317 315 316 318 318 316 318 318 319 317 319 319 319 317 318 320 318 318 319 320 323 320 322 320 323 319 317 316 317 317 316 315 314
316 317 318 326 328 323 321 313 322 322 317 315 317 316 318 318 318 319 318 318 317 318 318 321 321 318 317 318 319 320 319 317 327 322 319 319 323 321 318 316 316 315 314 312 312
317 316 325 325 323 323 313 315 321 321 317 317 318 318 320 319 319 318 318 318 317 318 321 320 320 318 317 317 317 320 317 316 318 315 315 318 320 318 317 317 316 315 314 315 313
320 324 324 322 322 321 318 319 324 320 319 317 319 318 319 319 320 319 320 319 318 316 316 319 320 318 317 317 316 315 316 320 314 319 323 318 321 320 318 319 318 319 318 312 310
323 312 324 323 319 312 316 322 326 318 320 318 318 319 318 318 319 321 321 319 318 319 315 318 315 316 318 316 316 316 317 315 316 314 318 316 317 313 318 318 318 315 312 310 309
315 314 326 325 309 312 319 322 320 318 318 321 321 321 318 319 323 322 322 320 318 319 316 316 313 314 317 315 316 315 318 314 311 316 311 311 314 312 315 315 313 312 310 307 307
316 322 326 319 308 311 315 320 320 319 319 320 321 321 320 322 323 322 321 319 315 318 318 316 314 314 316 316 315 316 317 315 311 309 314 309 311 311 313 312 311 310 309 307 306
316 319 316 316 310 313 320 322 322 320 320 320 320 320 320 322 321 322 322 320 315 314 313 315 316 313 315 315 314 313 313 315 313 311 313 311 312 315 313 312 310 309 307 306 306
317 316 314 316 318 320 319 321 322 321 320 318 320 321 320 322 323 322 322 320 317 314 316 314 316 317 313 312 313 313 312 313 314 312 313 312 312 312 312 311 310 309 308 307 307
322 317 313 310 313 319 319 322 321 321 320 321 319 321 320 319 319 321 320 318 315 315 317 314 313 313 313 313 313 312 310 310 310 311 313 314 316 312 310 310 310 309 308 307 307
318 320 314 312 312 314 317 320 321 320 321 320 319 317 316 318 316 314 314 315 315 316 317 313 309 306 305 309 307 306 308 313 313 312 311 315 313 309 311 310 308 307 306 305 305

GFSSW_925_thetae_036.txt.gz
Theta_e
310 311 311 311 310 311 310 311 310 310 310 309 308 308 308 309 310 312 314 312 315 313 312 315 314 314 315 314 313 309 311 311 313 323 325 324 326 317 325 328 327 325 330 332 332
311 311 311 311 311 310 310 311 310 310 310 309 308 308 309 310 313 315 311 312 312 315 315 314 313 314 313 314 312 313 312 312 314 317 325 325 325 326 329 330 325 322 324 327 329
311 311 311 311 311 310 310 311 310 310 310 309 308 309 309 312 317 314 318 317 315 314 317 315 314 314 316 314 313 311 313 310 312 317 313 317 319 323 328 331 325 326 324 322 322
311 311 311 311 310 310 310 310 310 310 310 308 308 309 311 315 316 317 317 317 318 315 316 314 314 317 318 317 313 313 310 309 310 311 313 320 315 328 322 325 324 325 323 321 320
311 311 311 311 310 310 310 310 310 310 309 308 309 310 314 319 315 316 317 317 317 316 315 315 316 316 317 312 311 310 311 310 308 308 311 310 315 324 314 325 320 322 321 320 318
311 312 311 311 311 311 310 310 311 310 309 309 309 311 315 315 315 317 317 316 316 316 315 314 316 316 316 313 311 310 309 310 310 309 309 311 311 313 317 322 320 322 321 319 320
312 311 311 311 311 311 311 311 310 309 309 309 311 314 318 317 316 315 317 317 316 315 315 315 316 316 313 313 310 309 311 310 311 312 313 311 314 314 321 323 323 321 321 319 320
312 311 311 311 311 311 311 311 310 309 309 310 312 316 317 315 315 317 319 316 314 316 316 317 317 315 313 311 311 312 310 311 312 313 311 311 311 312 323 325 324 323 322 320 320
312 311 311 311 311 311 310 310 309 309 310 313 314 318 316 315 317 317 315 315 316 316 316 315 314 313 312 311 311 311 313 314 316 312 313 314 314 308 322 323 319 318 320 319 318
311 311 311 310 310 310 310 309 310 312 312 314 316 317 315 315 318 315 315 315 316 316 315 315 311 312 310 310 313 313 314 314 315 314 312 311 313 313 312 318 319 318 317 316 315
311 311 311 310 309 309 309 312 312 313 316 313 313 314 317 317 314 314 315 316 315 314 317 314 313 313 314 313 313 314 313 315 314 313 312 316 316 316 316 317 318 316 316 316 315
311 312 311 309 309 309 311 312 313 316 319 315 315 316 317 316 316 314 316 317 316 316 316 314 315 314 316 315 316 314 314 316 315 312 314 317 316 316 317 318 317 316 315 314 314
311 312 311 309 309 311 313 316 320 321 320 318 316 314 313 316 315 314 316 316 316 317 315 315 316 316 317 318 319 318 317 318 317 315 313 315 315 317 317 318 317 316 315 314 314
312 312 312 311 311 312 312 315 326 321 312 314 315 315 315 315 316 315 315 316 316 316 314 317 317 317 316 317 318 321 318 317 316 313 317 313 317 318 317 319 319 317 315 314 314
312 313 312 312 316 317 318 325 327 317 314 313 315 315 314 315 314 315 315 316 315 316 315 318 318 318 318 318 317 319 316 317 316 315 315 316 317 316 318 321 319 317 316 314 314
312 313 312 312 316 320 325 324 319 318 319 315 315 315 316 316 315 315 316 315 314 316 315 317 316 317 317 317 317 316 319 317 317 316 319 320 316 315 318 319 318 316 316 315 314
312 313 312 313 323 327 324 312 314 318 316 316 315 315 316 317 316 316 317 317 316 318 319 318 318 315 317 319 317 317 318 319 322 319 321 318 319 317 315 316 317 316 315 314 313
311 313 314 319 327 327 319 311 316 318 317 314 314 315 317 317 317 317 317 318 316 315 317 319 320 317 315 318 319 319 317 319 326 323 320 318 323 320 316 314 315 315 314 313 313
312 315 319 322 326 324 310 312 314 319 316 316 316 317 319 318 318 317 317 317 316 317 319 319 319 317 316 317 317 319 316 314 317 314 314 317 319 318 316 316 315 314 314 313 312
315 315 323 324 324 318 311 312 320 321 317 316 316 317 319 319 319 318 319 318 317 314 316 318 320 316 316 316 314 315 314 318 313 317 320 317 319 320 319 317 316 314 313 312 309
320 316 322 325 319 310 312 314 323 322 318 317 317 318 317 318 318 320 319 319 317 318 315 316 314 315 317 314 316 316 316 314 314 312 316 314 316 313 318 317 316 314 314 309 308
310 314 325 323 311 310 316 320 321 317 317 320 319 317 317 318 321 320 320 319 317 318 316 315 312 314 316 314 315 314 316 311 308 312 310 310 312 311 312 314 314 312 310 307 305
317 321 323 314 311 310 313 319 319 317 318 320 321 319 319 321 321 320 320 318 314 317 315 313 313 314 315 312 313 316 316 312 309 308 313 309 309 311 311 311 311 309 307 306 304
316 320 316 312 308 312 316 319 321 319 319 318 319 318 319 322 319 321 321 318 314 314 314 313 313 313 315 312 313 312 315 313 312 310 312 310 311 314 313 312 309 307 306 305 305
314 316 316 317 318 312 313 317 320 320 319 317 319 319 320 322 321 321 321 319 314 314 315 312 315 315 312 312 312 311 311 313 313 311 312 310 310 309 312 310 308 307 306 306 305
320 314 309 310 317 316 315 319 319 320 320 320 319 319 319 319 318 320 318 316 312 315 316 312 313 311 314 312 311 312 309 309 310 310 310 311 311 310 309 308 308 307 306 306 305
317 315 311 309 313 315 316 319 319 319 320 318 317 316 318 318 316 314 313 312 313 315 315 311 308 308 309 307 305 305 307 308 310 310 309 312 310 309 310 310 308 306 306 305 304

GFSSW_925_thetae_039.txt.gz
Theta_e
310 310 311 310 311 311 310 310 310 310 310 310 309 308 307 308 309 311 313 311 315 311 313 313 313 313 314 315 313 310 315 316 322 331 331 326 329 322 326 330 328 323 336 336 332
310 310 311 311 311 311 310 310 310 310 310 310 309 308 308 309 312 314 312 312 311 314 313 314 314 314 315 316 315 315 317 316 317 328 331 328 329 326 331 330 326 329 330 331 330
310 311 311 311 311 311 310 310 310 310 310 310 308 308 309 311 316 314 316 317 312 313 316 315 313 314 315 315 315 314 317 315 314 322 325 324 325 328 331 332 328 333 333 331 330
310 311 311 311 311 310 310 310 310 310 310 309 308 309 310 315 316 316 317 317 314 313 315 314 314 317 319 317 315 315 312 311 312 314 318 324 325 331 329 326 327 331 332 330 329
311 311 311 311 311 310 310 310 310 310 310 309 308 309 314 318 317 314 316 316 315 314 315 314 315 317 319 317 313 313 311 310 310 312 318 316 326 330 321 324 328 329 330 329 327
311 311 311 311 311 310 310 310 310 310 310 309 309 311 315 315 313 316 317 316 316 314 314 314 316 316 317 314 313 311 311 309 308 311 311 314 314 321 319 323 328 328 327 325 322
311 311 311 311 311 311 310 310 310 310 309 309 310 313 317 317 315 316 315 316 316 316 315 314 315 317 316 313 310 310 313 312 312 312 313 313 313 313 322 324 327 327 324 321 320
311 312 311 311 311 310 310 311 310 309 309 309 311 315 318 313 314 315 316 316 314 315 315 315 315 316 314 312 313 313 313 314 313 312 311 312 314 312 325 324 326 325 323 322 322
311 312 311 311 311 310 310 310 309 309 309 313 313 317 318 314 315 316 314 314 314 315 315 314 316 315 312 314 316 314 314 315 315 313 313 314 314 315 319 325 325 324 323 323 322
312 312 311 311 310 310 310 309 309 310 312 313 315 318 314 315 317 315 314 315 316 315 316 315 314 315 313 314 317 316 316 315 316 314 316 315 318 318 318 325 323 323 322 321 320
312 312 311 311 310 309 309 312 313 313 314 314 313 314 314 316 314 313 314 316 315 317 319 316 318 317 315 313 312 314 315 316 314 312 320 320 321 320 320 322 323 322 322 321 320
312 312 311 311 309 309 309 311 312 315 320 315 315 315 315 316 316 313 315 316 317 318 316 317 317 314 316 315 315 315 317 317 315 314 319 320 322 321 320 321 321 322 321 322 322
312 311 311 311 309 309 310 313 319 319 323 317 316 315 313 315 316 314 315 315 316 317 315 318 316 315 318 318 320 319 319 318 318 317 316 319 321 322 321 320 319 319 319 321 323
312 311 311 310 310 310 310 312 313 320 315 314 315 315 314 314 315 313 314 316 316 316 315 319 317 316 317 319 318 322 318 317 316 317 321 315 320 320 322 323 321 320 320 320 319
312 311 312 310 312 312 315 316 326 316 317 314 314 314 313 315 314 315 315 315 316 316 316 319 318 318 319 318 316 320 317 318 316 318 319 319 320 319 322 326 324 321 320 318 318
312 311 312 311 312 316 323 324 318 321 320 314 314 314 316 315 314 314 317 315 314 318 318 317 315 317 317 316 316 318 320 320 319 321 325 320 319 319 324 325 325 321 319 318 317
312 311 312 312 316 323 325 314 317 322 316 315 314 315 316 316 316 317 318 319 319 321 321 319 318 316 316 320 318 320 322 325 326 328 326 319 322 324 317 318 325 322 320 318 317
312 311 312 312 315 326 316 313 318 316 318 313 313 315 317 316 317 317 318 320 317 317 319 321 320 317 316 318 321 320 322 329 326 329 326 319 325 323 318 316 320 320 319 318 317
311 311 312 313 314 317 312 315 317 315 317 315 315 317 318 317 318 318 317 317 316 316 321 322 320 316 315 317 318 320 319 316 321 315 321 319 320 319 317 317 319 319 318 318 318
312 313 316 318 321 315 314 314 314 318 317 314 315 317 319 319 319 319 318 317 317 314 316 319 322 315 315 315 316 318 316 322 319 321 320 318 320 322 321 319 319 320 319 318 316
316 317 319 324 320 311 315 313 319 321 317 316 316 317 317 319 318 319 319 318 316 316 316 315 319 318 316 316 319 319 319 316 317 317 318 319 317 317 320 320 320 320 319 316 313
312 315 322 319 313 310 315 314 320 319 316 319 316 316 317 318 320 320 321 319 316 317 319 314 316 320 318 314 314 315 317 316 317 314 315 317 318 312 316 317 318 317 316 313 311
312 320 319 310 314 312 313 318 319 317 318 319 320 318 319 321 322 320 320 316 314 315 318 315 317 320 318 316 315 317 316 312 311 313 317 324 316 312 314 314 316 317 313 310 308
318 321 318 310 309 313 316 317 320 318 319 317 318 319 321 321 320 321 321 317 313 315 313 314 314 318 322 316 315 315 317 313 315 318 315 317 314 311 316 315 313 312 311 309 308
313 318 318 318 315 311 313 317 319 320 318 316 319 319 320 322 321 321 320 317 314 315 315 314 317 315 312 312 312 311 312 315 315 314 318 314 313 313 313 316 313 311 309 308 308
316 315 309 312 315 313 315 318 319 319 319 319 320 319 318 320 320 322 320 316 313 316 316 312 317 312 315 312 311 313 311 311 313 312 313 312 313 311 311 311 311 310 309 309 308
316 311 312 309 313 313 315 318 318 320 319 317 318 318 318 318 316 314 313 313 314 317 315 313 314 314 315 308 307 312 311 312 311 311 313 315 314 312 312 312 312 310 309 309 307

GFSSW_925_thetae_042.txt.gz
Theta_e
310 310 310 311 311 311 311 311 310 310 310 310 310 309 308 308 308 316 315 314 313 312 315 314 315 314 315 317 319 318 318 324 332 333 334 333 330 328 328 331 332 330 337 339 338
309 310 310 311 311 311 311 310 310 310 310 310 310 309 308 308 314 316 314 312 311 312 313 316 316 316 316 317 319 319 319 321 327 332 330 326 329 328 329 331 331 333 338 338 338
309 310 311 311 311 311 311 310 310 310 310 310 310 308 308 310 319 316 316 316 312 313 317 317 316 316 316 318 318 318 319 320 319 329 327 325 329 330 329 333 332 333 340 338 338
309 310 311 311 311 311 311 310 310 310 310 310 310 308 308 317 318 318 316 316 313 314 316 318 317 316 315 316 318 318 318 316 318 327 325 329 329 331 331 328 329 332 339 338 337
309 310 311 311 311 311 311 310 310 310 310 310 309 308 315 320 318 314 316 316 313 314 316 319 317 317 317 317 318 317 316 315 323 324 323 326 329 331 328 330 332 336 337 335 332
309 310 311 311 311 311 311 310 310 310 310 310 308 309 318 318 314 317 316 316 317 315 317 318 318 317 320 320 318 317 313 315 318 323 321 326 328 330 327 330 335 337 334 328 326
309 311 311 311 311 311 310 310 310 310 310 310 309 313 318 318 315 319 317 317 318 317 319 318 318 319 320 319 313 314 313 313 315 319 320 323 325 318 325 330 333 332 330 326 323
309 311 311 312 311 311 310 310 310 310 310 309 310 317 318 315 316 316 316 317 317 317 318 317 317 319 319 315 315 315 316 317 316 320 316 319 319 319 327 329 331 330 327 326 323
309 311 311 312 311 310 310 310 310 309 309 311 315 319 319 316 316 317 317 316 317 317 316 316 318 320 317 316 316 316 316 316 316 316 319 318 318 320 328 328 330 329 328 326 326
310 311 312 311 311 310 310 310 309 310 312 314 316 322 320 318 317 317 314 315 319 318 317 319 320 318 317 317 317 318 315 316 316 317 317 318 321 320 327 328 328 329 329 327 327
310 311 312 311 311 310 310 314 317 319 316 318 316 319 317 317 316 316 315 318 319 320 320 320 321 319 318 317 318 319 319 317 318 318 320 320 322 322 328 329 329 329 329 328 327
310 312 312 311 311 309 311 315 316 320 321 317 317 316 316 316 318 317 316 318 318 318 321 321 320 320 319 319 319 318 319 321 319 318 322 324 325 323 325 329 330 329 329 329 329
311 312 312 311 310 310 313 313 319 318 326 319 318 317 316 317 318 317 318 319 318 318 321 321 320 320 321 320 321 321 322 322 321 320 322 323 325 325 324 325 326 327 328 329 331
311 312 311 311 311 313 313 312 313 315 323 316 317 317 316 319 318 316 317 319 320 320 321 322 319 320 322 322 322 322 321 321 321 322 322 322 321 326 326 325 326 327 328 330 330
311 312 311 311 315 313 317 315 319 320 318 316 317 316 317 318 317 318 318 319 318 320 320 322 321 321 321 321 320 323 320 321 321 322 323 322 322 325 326 327 325 327 329 329 327
311 312 311 311 313 316 321 325 323 327 321 317 317 317 318 318 317 318 320 319 319 321 321 321 320 321 321 320 321 322 323 324 324 324 324 322 323 319 324 325 327 327 329 327 325
311 312 311 314 314 323 318 323 325 323 317 317 317 317 317 318 318 319 320 320 320 323 324 322 322 320 321 323 322 323 323 321 323 325 323 324 324 320 322 323 326 328 328 325 322
311 312 312 314 315 322 322 325 322 317 318 317 317 317 317 319 319 320 322 322 321 321 323 322 323 320 320 322 322 323 322 321 318 322 323 323 324 326 323 322 323 326 326 324 321
312 311 313 314 313 319 323 326 320 320 319 317 317 318 319 319 319 321 322 322 322 322 321 323 322 320 319 321 322 323 323 322 326 322 326 321 323 323 322 322 322 327 326 323 321
314 314 315 315 313 316 325 322 320 321 319 318 317 318 320 320 319 320 322 321 321 320 322 323 323 320 319 320 320 323 321 323 323 323 318 317 319 318 323 323 323 326 324 322 322
314 317 321 316 319 322 326 320 318 323 321 318 317 319 320 321 320 319 321 321 320 320 321 322 322 322 320 321 321 322 323 321 321 323 318 317 316 322 321 323 323 325 324 322 322
316 319 323 321 323 326 323 319 320 322 323 320 319 319 319 321 322 320 321 321 320 320 323 320 324 326 323 318 318 320 322 321 319 318 322 323 317 317 321 323 323 323 323 322 322
318 324 318 317 328 325 319 319 322 320 321 322 321 321 322 323 324 323 324 320 319 320 323 320 323 325 323 320 320 320 321 320 318 319 320 327 316 317 319 320 321 322 322 321 319
319 326 325 320 320 322 320 319 321 321 322 321 323 323 324 325 324 325 325 320 318 319 312 317 322 323 324 321 321 321 320 319 318 320 317 318 314 316 317 319 320 321 321 320 317
321 321 322 327 323 319 319 319 319 323 322 322 323 324 324 326 325 326 324 319 319 316 320 321 323 320 318 316 316 318 318 319 319 318 319 315 314 313 314 316 317 319 320 318 316
321 322 320 325 321 318 317 320 319 322 323 323 324 324 324 326 324 326 324 322 323 320 322 319 323 319 320 317 316 317 317 316 319 318 318 317 317 316 316 315 317 318 318 317 315
320 315 322 316 319 318 318 319 319 324 322 321 324 325 325 324 323 323 320 320 320 323 322 322 322 320 319 314 314 321 318 317 316 317 318 318 317 316 315 316 317 317 317 316 315

GFSSW_925_thetae_048.txt.gz
Theta_e
311 309 309 309 310 311 311 311 311 311 311 311 310 310 310 309 308 315 319 317 316 316 315 316 318 316 316 316 317 318 318 321 323 335 336 332 332 331 329 330 331 331 336 337 337
311 310 308 309 310 311 311 311 311 311 311 311 311 310 309 308 315 316 316 315 315 315 314 316 318 318 317 316 317 318 320 321 329 332 331 329 332 332 328 329 328 340 341 341 338
311 310 308 309 310 311 311 311 311 311 311 311 311 310 309 308 320 321 317 317 315 314 313 315 318 319 317 317 318 318 320 322 330 328 328 329 328 331 328 329 328 341 342 341 340
311 312 309 309 310 311 311 311 311 311 311 311 310 310 308 316 325 319 316 316 316 315 315 317 319 317 316 317 318 318 321 321 330 328 329 328 330 329 328 328 328 333 340 338 338
311 312 309 308 310 311 311 311 311 311 311 311 310 309 313 322 321 319 318 316 316 314 318 319 318 317 317 317 318 320 320 321 321 328 326 326 329 328 328 326 327 333 335 337 336
312 311 310 308 310 311 312 311 311 310 311 310 310 308 319 321 317 319 321 321 319 315 317 318 318 318 318 320 318 320 321 323 324 324 324 325 324 322 326 335 336 334 333 333 335
313 311 310 308 310 311 312 311 311 310 311 310 309 313 318 318 318 319 321 320 320 320 319 319 318 319 320 321 320 322 322 322 323 325 325 329 329 327 327 332 333 331 331 332 327
313 311 310 309 311 311 312 311 310 310 310 309 309 316 320 318 317 317 319 321 321 320 320 320 321 320 321 322 317 320 321 322 321 323 325 325 332 326 327 329 330 329 328 325 322
314 312 310 309 311 312 311 311 310 310 309 309 315 320 321 319 318 318 318 319 320 320 320 320 320 321 322 321 320 320 318 319 321 321 323 324 324 324 326 327 327 326 325 322 322
315 312 310 309 311 312 311 310 311 311 313 315 317 320 321 319 318 318 319 319 320 322 321 321 321 323 322 320 320 320 318 319 320 321 321 323 321 322 325 327 327 325 323 322 322
316 313 310 309 311 312 311 317 320 322 317 319 320 318 319 320 319 319 319 318 320 322 323 322 323 321 321 320 319 320 320 320 320 320 319 319 321 320 323 326 328 327 325 325 323
316 313 310 309 312 312 311 318 320 322 325 323 318 318 318 319 319 319 319 318 320 322 321 322 325 322 320 320 320 319 321 321 318 318 318 319 319 321 322 324 328 329 328 327 327
316 313 310 310 312 311 315 315 317 319 325 325 323 315 317 319 320 319 319 319 319 321 320 322 324 324 323 322 319 320 323 324 323 320 318 320 319 322 323 323 324 327 329 329 329
316 313 309 311 312 316 317 317 316 317 327 324 320 317 318 319 320 319 319 319 319 320 324 323 322 323 324 320 320 324 324 322 323 324 320 323 325 326 323 325 325 326 328 329 330
316 313 309 311 317 320 322 319 320 324 336 322 319 318 319 319 319 319 319 319 320 320 322 326 323 324 323 321 322 324 324 324 321 321 322 323 325 326 325 325 326 329 329 329 330
316 312 309 312 313 316 320 324 320 333 330 318 317 318 319 318 318 318 318 319 319 320 321 322 323 324 324 322 321 324 324 323 323 325 327 326 326 326 325 326 327 327 329 330 331
316 312 310 315 318 316 316 325 331 329 320 320 318 319 319 319 319 317 318 318 319 321 320 323 320 322 322 321 322 321 322 328 333 334 330 321 323 323 325 326 327 328 330 331 332
315 312 310 313 317 320 325 330 328 322 324 318 318 319 319 319 318 318 317 317 317 319 319 325 325 322 321 321 326 324 323 332 331 335 330 326 323 326 325 324 326 328 329 331 330
313 311 313 313 316 321 327 332 325 324 322 321 318 319 319 319 318 318 317 318 318 318 320 322 325 323 323 321 324 324 324 324 323 332 336 320 317 326 324 324 325 327 329 330 329
312 313 313 315 315 320 328 329 324 322 321 319 319 318 319 319 318 319 318 319 318 318 322 324 328 325 324 321 321 321 321 325 323 325 324 319 320 328 323 323 323 327 329 330 329
313 314 314 317 318 321 327 327 324 323 322 321 319 318 318 319 319 319 318 318 319 322 322 322 324 325 322 322 318 324 323 320 319 326 330 331 322 320 321 322 322 324 329 330 329
313 316 317 320 321 318 324 323 320 324 322 321 321 319 319 319 319 318 318 320 321 321 322 321 322 327 323 322 321 321 322 322 335 325 327 332 326 320 321 322 322 323 327 328 328
314 320 321 320 320 321 319 323 322 323 323 322 323 320 320 320 321 320 319 325 322 322 322 323 324 326 323 322 323 322 320 320 322 326 326 336 325 320 319 319 319 320 323 326 327
314 322 322 324 320 317 320 322 324 323 321 321 322 320 320 321 321 322 321 324 323 323 316 323 323 322 325 321 322 324 323 320 322 333 326 325 319 318 320 320 319 320 320 322 324
317 320 322 324 325 321 323 322 322 323 322 322 322 321 320 321 321 321 321 326 323 318 321 323 321 319 319 320 320 322 322 321 320 322 325 324 320 319 318 319 318 319 319 319 319
318 321 323 322 322 322 320 326 323 323 321 322 323 321 320 322 321 321 323 327 324 324 324 324 325 324 325 323 321 321 320 319 319 319 319 320 320 319 319 319 318 317 316 317 318
313 317 322 321 323 322 323 325 325 323 322 320 323 323 323 324 325 327 326 326 324 326 326 326 329 330 329 321 319 321 321 319 318 319 319 320 321 319 318 317 317 317 317 317 317

GFSSW_925_thetae_051.txt.gz
Theta_e
311 310 310 308 309 310 310 310 311 311 311 310 310 310 310 309 308 310 316 312 316 316 316 314 315 317 316 312 312 313 311 312 318 335 334 331 331 331 326 332 329 329 328 336 335
312 311 311 309 308 309 310 310 311 311 311 310 310 310 310 309 310 315 315 314 314 316 316 314 314 316 313 313 311 312 311 314 329 330 332 330 330 330 330 329 332 338 334 335 331
312 311 311 309 308 309 310 311 311 311 311 310 310 310 309 308 318 322 316 317 317 315 314 313 314 314 315 313 311 312 312 320 328 328 327 327 330 330 331 329 328 338 337 333 330
313 311 311 310 308 309 310 311 311 311 310 310 310 310 308 314 323 318 317 316 317 315 314 314 314 314 315 313 312 314 315 321 327 327 328 329 325 328 330 327 327 336 337 329 329
315 312 311 310 308 309 310 311 311 311 310 310 310 309 309 318 322 313 319 317 316 315 315 316 317 316 314 313 313 315 316 319 327 327 327 328 326 327 328 327 327 339 337 334 331
315 314 312 310 308 309 310 311 311 311 310 310 310 308 317 320 314 318 321 319 318 313 316 316 316 316 316 316 318 319 320 320 322 324 323 328 328 321 331 325 329 335 336 332 329
316 315 313 310 309 309 311 311 311 310 310 310 309 311 317 316 310 315 317 320 320 315 314 317 318 317 317 320 319 319 319 320 322 323 324 321 325 325 324 328 334 333 334 329 323
317 315 313 310 308 309 311 312 311 310 310 310 309 314 319 312 317 318 317 318 321 320 319 320 320 319 320 319 319 319 319 320 322 325 325 324 329 325 323 327 328 328 330 331 322
318 316 314 310 308 309 311 312 311 310 311 309 312 315 322 320 320 317 317 317 319 320 320 320 319 320 320 320 319 318 318 318 319 325 326 324 326 323 322 326 325 322 319 319 319
319 316 314 311 308 310 311 311 312 311 314 312 315 317 318 319 319 317 317 318 319 320 320 320 318 319 319 317 319 320 319 318 317 319 323 323 321 321 323 325 323 320 317 317 318
320 317 315 311 308 310 312 312 318 318 315 319 318 317 317 318 319 319 319 318 318 320 321 320 321 320 320 319 318 318 319 317 317 318 318 323 321 321 321 323 321 318 317 317 318
321 317 315 311 309 311 311 314 318 317 322 320 319 320 317 317 318 318 318 317 317 320 320 320 324 322 322 322 320 319 319 321 321 318 316 316 317 318 320 323 323 321 318 318 320
321 317 315 311 309 311 312 313 311 315 322 323 322 323 319 316 318 318 317 316 317 320 320 321 322 322 323 323 324 324 323 321 322 322 318 319 317 318 319 320 324 323 321 321 324
320 318 315 310 310 314 317 318 316 315 325 323 322 323 319 315 319 318 318 316 318 320 322 322 322 321 322 323 323 324 322 323 321 320 320 320 321 323 321 320 321 324 323 323 323
319 317 314 310 313 317 320 324 317 319 330 325 322 318 315 318 319 318 318 317 317 321 322 321 322 323 324 323 323 323 322 322 323 323 322 322 322 322 321 323 322 320 322 324 325
316 317 314 310 310 313 318 322 323 331 330 323 319 317 318 318 318 317 317 317 317 320 320 320 320 322 323 324 321 321 321 324 324 325 324 323 324 323 321 322 324 324 324 323 324
315 318 313 312 315 319 315 320 329 332 321 321 317 317 318 318 318 317 317 316 316 318 320 321 320 321 322 322 322 321 322 326 326 325 327 324 326 324 323 322 323 322 323 325 327
315 317 314 311 314 316 321 327 331 323 323 320 318 318 318 318 318 318 316 316 315 316 318 322 322 322 322 322 324 323 324 324 328 330 327 325 328 326 322 322 323 323 322 326 326
316 314 312 312 309 314 324 328 323 324 320 321 317 319 318 318 319 318 316 315 315 315 316 323 326 324 323 322 321 324 326 324 324 325 321 321 321 324 322 323 324 323 326 326 325
313 312 312 312 309 314 325 323 325 322 322 323 321 318 319 318 319 317 317 317 317 316 317 324 326 324 324 323 321 322 321 323 321 320 321 320 321 325 323 323 323 325 327 326 323
313 315 314 313 316 320 321 322 322 322 322 323 321 319 318 319 318 317 319 318 317 321 321 322 320 324 324 325 323 321 321 320 319 323 322 322 319 319 320 320 320 322 326 326 323
314 317 314 315 318 316 319 319 319 322 322 324 321 321 321 318 320 318 319 318 318 321 322 322 322 326 325 322 321 320 321 322 318 321 321 317 319 317 317 318 318 318 325 325 324
315 316 317 316 314 317 316 317 319 321 321 323 322 322 321 321 321 319 318 324 320 321 321 323 321 319 321 320 321 321 320 319 320 320 321 317 318 316 317 317 317 318 321 324 323
314 317 319 318 312 313 317 316 318 319 322 322 323 321 322 320 320 323 325 324 323 321 316 322 323 321 320 318 319 321 321 320 319 318 320 318 320 317 316 316 315 316 317 320 323
314 317 320 322 320 317 315 316 318 322 322 322 323 322 322 321 320 321 325 324 323 318 321 320 320 320 318 319 320 320 321 320 320 320 319 319 320 318 316 314 314 315 316 316 318
315 316 319 321 320 321 318 316 319 320 323 323 323 322 320 320 320 321 324 325 323 322 322 321 322 321 323 322 319 318 318 319 317 318 317 317 318 316 314 313 312 312 312 313 313
311 314 318 318 321 321 319 318 317 320 321 321 321 322 321 320 322 322 323 323 322 323 321 323 322 319 324 315 316 314 317 317 317 317 317 317 315 314 314 314 313 313 313 314 314

GFSSW_925_thetae_054.txt.gz
Theta_e
312 311 310 310 308 307 309 309 310 311 311 311 310 310 310 309 308 309 313 309 314 315 313 315 314 314 315 310 311 309 309 310 311 332 332 331 329 329 327 329 328 330 333 333 335
314 312 310 311 309 307 308 309 310 311 311 310 310 310 310 309 308 314 318 316 311 316 316 315 312 313 312 311 311 309 307 310 314 330 330 329 329 330 330 328 335 335 335 334 333
315 313 311 310 310 307 308 309 310 311 311 310 310 310 309 308 316 321 316 316 317 315 315 314 313 313 313 312 311 310 310 318 327 327 326 328 329 328 329 328 333 336 334 331 331
315 315 312 311 310 308 308 309 310 311 311 310 310 310 308 315 319 318 317 317 316 315 314 313 313 314 314 314 312 313 311 319 325 325 325 326 327 328 328 326 333 334 332 329 330
316 315 314 312 310 308 307 309 310 311 311 310 310 309 308 315 318 314 314 317 316 315 315 314 316 316 315 313 313 313 314 322 325 326 325 326 325 327 325 327 331 329 331 330 328
318 316 315 313 310 308 307 309 311 311 310 310 310 309 316 317 312 318 320 316 316 315 314 314 316 315 314 316 316 317 325 326 325 325 327 327 326 322 325 326 334 333 331 329 329
319 317 315 314 311 308 307 309 311 311 310 310 309 310 315 310 309 314 315 316 319 314 314 315 315 317 316 319 318 318 317 321 322 322 322 323 324 325 324 326 334 335 331 332 328
321 318 316 315 312 309 307 309 311 311 310 310 309 312 314 310 315 319 317 317 317 319 316 318 318 318 319 318 318 316 315 318 324 324 324 319 325 322 322 330 334 335 331 333 328
321 320 317 315 313 309 308 310 311 311 310 311 311 313 319 316 319 315 316 317 317 317 318 318 318 318 317 318 317 317 318 317 323 323 324 322 323 322 321 324 331 333 329 328 330
320 321 318 316 313 310 308 310 311 314 314 312 313 312 314 317 318 319 316 316 316 318 319 319 315 318 317 316 319 319 318 318 318 324 324 325 321 319 321 325 326 330 328 321 324
320 321 319 316 313 309 309 311 315 318 314 317 313 314 313 316 317 317 318 316 316 318 320 319 320 320 320 320 322 319 319 317 317 318 323 323 321 319 321 323 319 318 325 322 323
318 320 320 316 313 309 310 311 314 314 316 317 318 317 316 318 317 315 318 317 315 319 319 318 322 321 321 322 322 322 321 319 318 317 322 319 320 320 321 324 320 319 318 318 318
316 319 319 316 313 308 310 312 313 312 318 321 320 321 320 321 318 316 316 315 316 319 319 318 320 321 322 322 323 322 322 321 320 319 315 315 318 317 319 322 321 320 317 317 319
311 318 319 315 309 311 315 318 319 314 321 322 323 322 321 317 314 316 317 316 316 319 319 320 320 320 321 322 321 322 321 321 321 317 316 317 319 321 317 321 323 321 317 316 320
310 317 318 314 311 313 319 317 318 318 311 319 321 320 317 314 317 317 317 316 315 320 318 318 321 322 321 321 321 322 321 322 321 320 320 321 319 318 319 320 320 322 319 318 322
307 316 317 313 311 309 313 315 320 327 322 324 320 317 314 314 317 316 316 315 316 319 319 318 319 320 320 322 321 320 320 322 321 322 323 323 319 319 319 320 321 320 321 320 323
306 314 316 313 310 313 317 319 325 327 321 322 317 315 316 317 317 317 316 315 314 317 319 320 319 320 321 320 319 320 319 320 321 322 323 322 322 320 321 320 319 320 321 320 322
305 313 316 315 311 314 319 324 325 321 323 321 315 315 316 316 316 316 315 314 314 316 318 320 320 321 321 321 322 323 320 320 323 325 322 322 324 323 320 320 320 319 318 323 324
305 311 314 316 314 310 320 325 320 323 319 319 316 317 316 317 317 317 315 314 314 313 315 321 323 322 322 321 320 322 323 320 322 323 320 320 319 321 321 323 323 321 322 325 325
308 313 313 315 314 311 322 319 322 322 321 322 320 317 317 317 317 316 316 315 314 314 313 320 323 322 323 321 320 319 320 323 321 319 320 317 319 324 323 324 325 323 322 325 323
309 315 314 314 312 315 320 318 318 318 320 324 323 320 317 317 317 316 317 316 315 316 316 320 319 320 323 322 320 319 319 319 318 318 320 320 318 314 321 321 323 323 324 324 322
310 315 314 313 314 313 317 317 315 319 319 322 323 323 319 317 317 317 317 316 317 319 319 319 320 321 321 321 321 321 320 320 317 317 318 315 316 315 317 318 318 319 324 324 322
312 314 312 314 313 312 315 317 317 316 319 321 323 321 320 319 319 317 317 321 320 320 319 319 320 322 322 320 320 322 318 318 319 315 318 316 317 315 314 317 316 315 318 323 322
314 315 315 314 313 311 313 317 318 315 316 318 321 321 321 320 318 319 322 323 321 320 317 319 320 318 321 319 317 320 320 318 317 315 317 317 318 317 316 314 313 313 315 321 323
313 313 313 317 315 313 312 314 316 317 315 319 321 321 322 321 319 320 324 322 322 317 320 318 319 319 318 318 320 319 319 319 319 318 318 317 317 316 315 313 311 312 314 318 321
313 312 315 316 315 314 311 313 315 315 316 315 320 322 322 320 318 319 323 322 321 321 319 319 318 318 320 318 317 318 317 316 317 317 317 317 317 312 311 310 310 310 311 312 315
308 311 315 315 316 317 316 313 314 314 315 315 319 321 322 321 318 316 319 321 320 319 319 319 319 315 319 313 315 315 316 316 316 316 316 315 314 313 312 311 311 311 311 312 314

GFSSW_925_thetae_057.txt.gz
Theta_e
314 313 311 310 310 308 307 308 309 309 310 311 310 310 310 309 308 309 311 310 312 310 310 313 314 313 314 311 309 306 308 309 310 323 328 330 329 328 326 329 335 334 333 332 331
314 314 313 311 310 310 307 307 309 310 310 311 310 310 310 309 309 313 318 316 312 315 315 314 312 312 310 311 309 307 307 309 309 324 330 328 327 328 328 330 334 334 333 332 330
316 314 314 312 310 310 308 307 308 310 311 311 310 310 309 308 312 317 316 316 316 312 315 314 312 312 312 311 311 309 310 309 324 327 326 327 328 327 327 328 333 336 334 331 330
317 316 314 314 312 310 309 307 308 310 311 310 309 310 308 313 312 316 316 315 316 315 314 313 312 313 313 314 311 311 309 317 324 326 325 327 326 327 326 326 332 333 333 331 330
319 318 316 314 314 311 309 308 308 310 311 310 309 309 309 312 311 310 318 318 316 315 313 312 315 315 315 313 311 311 315 316 324 323 324 323 324 324 326 331 332 330 332 330 329
321 319 318 315 314 313 310 308 308 310 311 310 309 309 314 311 311 319 319 316 315 314 313 313 315 314 314 314 316 322 324 324 324 325 326 324 324 323 324 329 333 331 331 330 328
322 321 319 317 315 314 311 308 308 310 311 310 310 309 314 308 310 315 314 315 316 315 312 314 315 316 317 317 317 319 321 321 323 324 325 323 324 325 325 332 334 331 331 328 327
319 320 321 318 316 314 312 308 307 309 311 310 310 311 311 309 313 316 316 317 317 317 316 315 316 316 317 316 316 317 317 323 323 323 322 319 323 324 327 334 334 332 331 328 326
317 319 321 320 317 315 312 307 308 310 311 310 310 312 316 312 314 317 317 317 316 316 316 317 316 316 316 319 314 315 316 320 321 322 323 321 322 320 324 332 336 333 331 330 328
315 318 320 321 318 315 312 307 310 314 313 312 313 310 309 315 317 317 318 316 316 316 317 317 314 316 315 314 317 318 317 318 316 321 323 323 322 320 322 330 334 333 332 332 330
313 317 320 320 317 315 310 309 312 316 314 315 311 308 311 315 319 316 316 315 316 317 319 318 318 319 318 317 321 321 321 319 316 315 321 321 321 318 319 324 326 331 329 330 330
311 316 319 320 317 314 310 310 310 312 314 314 315 313 315 316 319 318 316 315 315 316 318 318 321 319 319 320 321 321 322 321 317 316 320 319 320 318 320 323 325 328 329 324 326
308 312 317 319 316 313 309 310 313 315 313 316 317 318 318 318 320 320 315 314 315 315 317 317 318 320 321 320 321 320 322 321 320 317 318 316 317 317 319 322 321 323 328 322 322
307 310 317 318 314 310 313 316 315 316 315 316 322 320 319 318 315 316 315 315 316 315 317 318 318 319 320 320 320 320 319 321 321 316 315 315 317 318 318 323 321 320 321 320 320
307 308 316 317 310 313 317 314 315 315 309 311 321 318 318 314 314 314 315 314 317 319 317 318 320 320 320 318 319 319 320 321 321 320 319 319 317 316 316 321 322 320 317 316 317
308 306 313 315 314 312 311 314 318 320 314 318 319 319 315 313 314 315 315 315 314 318 318 316 318 318 317 319 320 320 321 319 318 319 321 320 318 317 317 319 321 322 319 316 315
306 306 310 315 312 313 312 317 324 323 314 321 319 315 315 313 314 316 314 314 315 317 319 319 319 319 321 320 318 318 317 318 320 320 322 319 320 319 318 317 316 318 320 316 317
303 306 308 314 314 313 317 324 323 318 320 321 315 314 314 315 315 315 313 313 312 314 315 318 318 319 319 320 320 322 317 318 321 322 319 320 323 320 319 319 318 316 317 317 319
303 306 307 313 315 312 320 324 318 319 320 315 315 314 315 316 315 315 313 313 312 312 314 319 319 321 322 320 319 321 322 318 320 319 320 319 316 319 319 321 320 318 320 320 320
306 306 308 313 315 312 319 321 319 319 320 321 315 315 315 315 316 315 314 314 313 312 312 316 319 321 321 321 320 319 319 321 319 320 321 316 318 319 321 320 322 320 319 323 323
306 307 310 313 313 312 318 317 318 317 318 323 323 320 316 315 315 315 315 315 313 313 313 317 316 318 321 320 319 319 318 317 318 315 319 319 318 312 319 319 321 321 319 322 323
304 309 313 313 315 311 315 316 315 316 315 319 321 323 321 316 316 316 317 316 314 315 316 317 316 317 319 319 320 317 318 317 317 318 316 314 315 313 314 317 318 320 321 321 321
305 310 312 313 318 313 313 315 316 316 317 317 321 321 320 317 316 316 316 316 317 316 318 318 317 318 318 318 319 321 319 319 316 313 317 315 316 313 311 314 315 316 317 321 321
306 312 313 314 314 314 313 315 317 316 316 316 317 319 321 320 318 317 317 321 319 317 317 317 318 318 320 318 318 321 319 316 316 315 316 315 316 315 314 313 313 313 311 315 321
306 309 311 315 315 315 312 314 316 317 315 314 315 317 319 321 319 319 323 322 320 316 318 317 319 317 316 316 317 317 318 317 318 316 317 316 315 315 314 312 311 310 313 317 320
306 312 311 311 313 316 312 313 316 316 315 315 314 319 316 319 319 318 322 320 320 320 318 316 316 316 319 317 317 318 317 316 316 316 316 315 315 312 311 310 309 309 311 314 316
302 306 311 312 312 314 315 313 313 314 315 314 314 314 313 319 319 317 316 318 318 318 317 317 316 314 317 313 315 315 314 315 315 314 314 314 313 312 312 311 310 311 312 313 315

GFSSW_925_thetae_060.txt.gz
Theta_e
315 314 314 313 311 310 309 307 307 308 309 310 310 310 309 309 308 309 310 311 310 309 310 313 312 313 313 311 308 304 306 309 311 313 318 330 328 327 325 331 333 333 331 332 333
317 316 314 314 313 311 309 309 307 308 309 310 311 309 309 309 309 312 317 315 314 315 314 313 311 311 309 311 307 306 305 308 308 313 327 329 326 327 328 332 334 335 333 332 331
319 317 316 314 314 312 310 309 308 307 309 310 311 309 309 308 309 314 316 315 315 312 314 313 312 311 312 310 310 306 309 308 312 323 326 328 327 326 326 328 332 335 332 332 331
322 319 317 316 315 314 312 309 308 307 309 310 310 309 309 312 312 314 314 317 315 312 313 312 311 312 313 314 311 310 308 309 321 326 325 326 324 326 326 325 331 332 332 331 330
321 322 319 318 316 314 314 311 308 307 308 310 310 309 309 308 308 309 316 315 315 315 313 312 314 314 315 313 311 310 317 321 324 323 322 322 323 324 332 331 331 331 331 330 329
318 321 322 319 318 316 314 313 309 307 308 310 311 309 313 308 309 317 315 314 315 314 313 312 314 313 314 314 316 322 321 324 322 324 325 322 323 322 329 331 333 331 331 329 329
316 320 320 321 319 318 315 314 311 307 307 309 310 309 312 307 309 313 316 314 315 315 311 313 314 315 316 316 316 319 323 321 323 325 324 322 322 323 328 332 332 331 331 329 328
315 317 319 319 321 319 316 314 312 307 307 309 310 310 309 308 310 310 311 315 316 316 316 315 314 314 316 315 314 320 315 321 321 322 320 320 321 325 329 333 333 331 330 330 327
311 314 317 318 320 320 317 315 311 307 311 311 310 311 312 311 311 316 316 317 316 315 315 314 315 315 315 316 313 313 316 319 318 322 320 321 320 324 331 332 333 331 330 328 326
308 311 314 317 319 319 318 314 309 314 312 311 312 313 308 314 314 317 317 317 315 315 316 316 313 315 313 312 316 318 317 317 317 319 322 322 320 320 329 334 333 331 330 329 326
307 310 313 317 318 319 317 311 308 313 314 314 313 310 307 315 317 315 315 314 316 316 318 317 317 318 316 314 316 319 319 319 318 317 318 316 319 318 322 331 332 331 329 329 328
307 308 311 316 318 318 315 308 309 311 314 311 313 313 313 315 317 316 314 314 314 314 317 316 319 318 317 319 319 320 321 320 318 316 316 317 317 318 320 326 330 332 330 330 330
308 308 309 314 318 317 314 310 311 314 314 312 314 314 315 316 317 317 313 312 314 314 317 317 317 318 319 320 320 319 320 319 320 317 317 317 316 318 317 321 323 328 330 328 329
305 308 308 313 316 314 310 312 314 314 312 312 318 317 318 317 317 318 314 314 315 314 314 316 316 318 319 319 318 318 318 319 320 318 317 314 315 314 315 321 323 325 328 328 324
304 308 307 311 310 311 314 309 314 313 308 310 320 316 317 315 313 313 314 313 315 316 316 316 319 319 319 318 318 318 318 319 320 319 318 318 316 314 316 321 323 322 321 326 323
305 306 307 310 313 315 314 313 315 317 314 313 319 319 316 312 314 312 314 313 313 318 317 315 316 317 317 318 318 319 320 316 316 317 320 319 317 316 316 319 321 322 318 319 320
305 304 307 311 314 315 315 314 326 320 313 317 320 317 314 313 312 314 313 314 314 316 317 318 318 318 319 319 318 317 316 317 318 319 320 318 319 319 317 316 316 319 319 317 316
305 304 307 307 314 312 315 321 323 317 318 318 315 315 315 312 312 314 312 313 311 313 314 317 316 317 317 318 318 320 317 318 319 320 318 317 322 318 318 317 317 314 314 316 313
305 305 305 306 310 314 317 323 317 317 317 315 314 313 313 314 312 314 312 312 311 312 315 316 316 319 321 319 318 320 319 315 318 317 319 317 316 313 317 320 320 317 317 315 313
305 305 304 306 309 311 315 319 319 316 319 320 316 314 313 313 314 313 312 312 312 311 312 314 316 319 321 320 319 318 317 319 316 322 321 315 315 316 315 317 319 319 318 320 317
305 305 304 304 312 315 316 316 319 317 317 321 323 319 314 314 314 313 314 314 312 312 312 315 313 315 320 320 319 318 319 316 316 314 318 318 317 312 313 316 319 318 317 316 320
305 304 306 307 314 316 318 313 314 317 316 316 318 321 318 314 314 314 315 315 312 312 314 315 313 313 317 318 316 315 318 316 317 317 315 313 315 311 310 312 317 316 318 317 320
305 304 310 311 313 316 316 313 314 315 316 315 318 319 320 316 315 314 314 314 312 313 315 316 314 314 314 315 318 321 318 316 314 312 316 315 316 311 310 311 311 314 315 318 320
304 304 309 310 309 311 315 315 314 314 315 315 315 317 320 319 315 315 316 318 316 314 315 315 316 314 315 314 316 321 318 317 317 315 316 314 315 313 312 312 311 311 311 311 318
304 303 309 312 310 311 313 314 314 315 314 314 315 316 319 320 318 317 320 321 319 317 316 315 316 315 315 315 315 316 316 314 315 315 316 316 313 313 313 311 309 308 308 310 312
303 305 309 309 309 311 315 314 314 314 315 315 315 314 316 317 317 318 322 320 319 316 316 314 316 315 317 316 317 319 316 315 315 315 314 314 313 310 310 310 309 309 312 315 314
300 304 308 310 312 311 313 313 313 313 314 313 314 314 315 315 314 317 317 317 317 318 316 315 314 313 317 313 315 315 314 315 315 313 314 314 312 309 311 311 310 310 312 313 312

GFSSW_925_thetae_063.txt.gz
Theta_e
319 317 316 315 314 313 311 310 309 307 307 309 310 310 309 309 309 310 311 312 309 309 313 313 313 313 312 311 309 307 314 314 314 313 316 330 330 328 327 334 334 333 332 334 333
322 320 318 317 315 314 313 311 309 308 307 308 310 310 309 309 309 311 316 314 312 310 313 312 311 311 313 313 310 312 314 314 312 312 324 330 327 327 329 335 334 334 333 333 332
322 323 321 318 317 316 314 313 311 309 307 308 310 310 309 308 310 312 315 315 313 315 313 312 311 312 314 312 311 309 315 313 312 312 326 329 328 326 328 331 333 335 334 333 331
318 320 321 321 319 317 316 314 313 310 308 307 309 310 309 311 309 314 312 317 315 312 314 311 310 314 315 315 312 313 311 311 314 325 327 328 326 327 327 326 330 332 332 330 329
316 317 319 321 321 319 318 316 314 312 309 307 309 310 309 309 309 309 316 315 313 313 312 312 314 315 317 315 313 311 316 323 322 325 324 324 323 325 333 333 332 332 332 331 330
313 315 317 320 319 321 319 318 315 314 311 308 308 310 311 309 308 314 314 314 314 314 313 312 315 314 316 315 317 322 323 324 324 325 325 323 324 323 331 333 332 332 331 329 329
308 312 315 316 320 320 320 319 317 315 312 308 308 310 312 310 308 310 318 314 314 314 312 312 313 315 316 317 321 320 325 322 324 326 324 322 324 325 329 332 331 332 332 331 330
304 309 312 315 317 317 318 320 319 315 313 308 310 310 310 309 308 309 310 312 314 316 315 314 313 315 317 316 314 322 317 321 322 324 322 323 326 326 333 333 333 331 332 331 329
304 306 309 313 315 317 317 319 319 315 310 312 310 310 311 310 309 313 312 315 315 315 315 313 314 316 316 319 317 316 320 320 319 323 322 323 323 329 333 334 333 332 331 331 329
306 303 307 310 314 317 319 318 318 310 312 311 312 312 311 312 313 316 317 316 315 315 317 316 316 318 317 318 321 320 318 318 320 320 324 324 323 331 332 333 333 332 332 331 330
306 303 307 310 314 318 318 317 307 312 313 316 313 312 308 314 316 316 315 315 315 317 320 318 320 322 319 317 317 317 319 320 319 319 319 320 320 321 334 334 334 333 332 332 330
306 305 307 309 313 317 317 311 307 311 315 313 314 312 312 314 317 315 314 315 315 316 318 319 322 319 316 317 320 320 321 321 320 318 319 320 320 319 330 334 334 334 333 332 331
306 305 308 308 310 315 316 315 310 310 317 316 313 313 314 314 316 315 313 313 315 315 318 320 319 317 319 321 321 321 321 320 320 319 317 317 318 320 319 327 330 333 332 331 331
306 306 307 308 313 315 313 313 312 313 316 312 314 316 316 316 316 315 313 314 314 317 316 318 315 317 320 321 320 322 318 319 320 321 322 315 319 317 318 321 326 329 332 332 331
305 306 305 307 311 310 312 313 313 311 312 310 319 315 316 315 314 317 313 313 317 315 318 318 319 319 320 320 319 321 318 320 321 322 320 319 320 321 317 319 321 324 328 331 331
304 306 304 307 309 312 313 315 315 318 318 312 318 319 319 316 313 312 314 313 314 318 317 315 316 318 319 317 318 318 321 317 318 320 325 321 321 322 320 320 320 321 323 326 330
303 305 304 307 312 313 314 313 323 323 313 314 321 318 316 314 312 313 315 316 318 320 321 318 319 318 317 320 318 318 319 322 324 325 325 319 320 322 319 318 318 320 322 323 326
302 305 305 306 308 311 314 318 322 318 317 317 316 317 315 312 313 313 314 316 313 315 316 319 319 318 318 319 321 320 320 326 321 322 322 318 324 322 318 318 319 319 317 319 320
302 303 306 304 306 311 314 320 318 317 316 316 314 319 317 312 313 314 315 316 315 315 318 319 317 317 319 318 319 321 322 318 321 319 324 320 319 316 317 317 320 321 319 319 318
302 303 305 304 305 309 316 317 319 315 318 320 319 316 320 314 314 316 314 313 314 314 316 318 318 319 320 320 318 320 318 324 321 324 323 319 317 318 319 318 319 319 321 320 320
302 304 304 304 305 311 316 314 316 316 317 319 323 322 314 314 315 315 315 313 314 313 313 315 317 316 320 322 322 321 322 318 319 319 323 323 320 318 319 317 320 320 320 321 321
302 304 303 304 307 310 313 314 313 315 315 316 317 320 319 314 315 315 316 316 312 313 315 317 318 319 319 317 316 318 321 320 326 322 319 320 321 316 316 314 314 319 318 321 321
302 304 303 304 308 309 311 314 314 314 316 316 317 318 320 317 315 315 315 314 311 314 317 317 317 318 317 317 319 321 318 317 316 317 320 326 323 314 314 316 315 315 317 317 321
302 304 306 306 305 308 310 314 316 313 315 315 315 316 319 319 317 316 316 315 313 314 315 316 317 318 319 317 319 322 320 318 320 322 323 320 321 319 318 316 317 315 314 314 315
302 304 306 307 305 306 309 311 313 314 314 314 316 316 319 320 318 317 317 320 317 317 316 319 320 316 315 313 317 319 320 319 320 321 323 322 317 318 317 317 314 311 311 312 314
302 305 304 310 306 306 309 312 313 314 315 315 315 316 316 318 318 320 319 320 319 316 318 315 319 317 317 316 315 317 316 317 318 317 316 316 316 315 313 311 312 312 314 319 318
301 302 304 307 308 307 308 310 313 313 314 314 314 315 316 316 315 315 317 318 318 319 318 317 318 318 320 315 316 319 318 317 317 316 318 319 319 313 313 312 313 314 317 316 314

GFSSW_925_thetae_066.txt.gz
Theta_e
323 323 321 320 318 317 315 314 313 310 308 307 307 309 310 309 309 315 317 315 312 310 314 314 315 316 315 314 315 316 318 317 317 318 319 328 331 331 329 334 334 335 335 336 336
320 322 322 322 321 318 317 315 314 313 310 307 307 308 310 309 313 314 316 313 309 311 315 315 316 316 319 318 316 317 318 317 317 317 317 324 328 330 333 334 335 336 335 336 335
317 318 318 321 321 321 318 317 316 314 312 309 307 308 310 309 316 317 315 315 312 310 315 315 314 316 318 319 318 318 318 318 318 317 317 323 329 330 330 330 331 335 336 336 335
314 316 316 317 319 321 321 319 318 316 314 312 308 307 309 315 313 318 312 316 314 316 316 315 315 316 319 319 319 319 319 318 318 322 323 324 328 328 329 331 332 334 335 334 332
310 312 314 315 317 320 319 321 320 318 316 314 310 307 312 314 314 310 314 316 316 314 315 315 316 319 319 320 319 319 322 324 322 325 327 327 327 327 332 335 334 335 334 332 331
305 304 310 313 315 317 318 319 320 320 318 315 313 308 314 313 309 313 315 315 315 315 315 316 319 319 320 321 321 325 325 325 325 327 327 327 326 327 334 335 335 334 334 332 331
307 304 306 310 313 315 318 318 318 319 319 316 312 311 313 314 310 314 314 316 316 316 316 316 317 320 321 321 324 325 327 328 328 328 326 327 327 327 329 335 335 334 333 332 331
307 306 303 307 311 313 315 316 316 318 319 315 310 313 313 311 311 310 313 317 315 316 316 316 316 320 321 320 321 323 323 322 325 327 326 327 325 325 332 335 335 334 333 332 330
306 306 306 304 309 312 315 316 317 318 317 311 313 314 314 312 313 312 312 315 316 317 317 315 318 321 321 321 321 321 321 321 321 324 324 325 324 327 333 334 335 334 333 332 330
306 306 306 303 308 312 314 316 317 315 313 313 314 316 314 314 314 316 316 314 318 318 318 319 321 322 322 321 319 320 320 320 321 323 324 324 324 323 331 334 334 335 332 332 330
305 306 306 304 309 312 316 317 316 315 315 316 316 315 314 315 316 317 318 318 318 320 321 322 322 323 320 320 320 320 320 321 321 322 322 323 323 322 328 333 333 335 333 332 331
304 306 306 305 308 310 315 317 316 313 315 314 315 316 315 315 318 319 316 318 319 321 321 323 323 322 321 321 321 321 321 322 322 321 322 323 322 322 325 332 332 332 334 333 332
304 305 306 306 308 310 316 316 313 313 316 316 316 315 314 315 316 318 317 317 319 320 320 322 322 321 322 322 322 322 322 322 322 322 323 322 323 322 323 329 332 332 331 332 333
303 304 306 305 309 314 316 314 313 314 321 315 315 316 315 316 317 316 317 317 318 319 319 321 321 320 321 321 322 322 322 321 322 323 323 321 321 320 322 324 328 332 334 333 333
304 303 305 304 310 314 314 316 314 316 316 313 316 315 316 314 315 316 317 317 319 319 320 321 320 320 321 321 321 322 322 322 323 325 324 324 322 322 322 322 323 326 330 333 332
301 303 304 305 309 312 313 315 315 322 319 313 319 319 318 316 316 317 317 317 318 319 320 320 320 321 321 321 321 322 323 323 324 325 325 323 323 321 321 322 322 323 324 328 332
300 303 303 306 309 311 314 316 322 321 313 313 321 319 318 316 316 317 317 319 319 320 320 320 320 321 320 322 322 323 325 326 328 326 324 323 322 321 321 322 323 324 325 325 327
299 303 302 306 307 310 314 319 321 312 314 316 320 320 318 316 316 318 318 319 319 318 319 321 321 320 321 322 322 324 324 325 323 323 322 321 321 320 321 321 322 324 325 323 325
298 302 303 304 307 308 315 320 316 315 315 314 318 322 318 315 316 318 318 318 319 319 319 320 319 319 321 321 322 324 324 323 326 326 326 322 321 320 320 321 323 321 323 325 323
301 303 303 303 306 307 314 317 315 314 316 319 316 322 321 315 316 318 318 317 318 318 319 319 320 319 322 322 322 323 322 324 325 325 323 322 321 319 319 319 320 320 321 325 326
301 304 303 303 306 308 312 313 314 316 317 319 319 322 318 318 315 317 318 317 318 318 318 319 319 322 323 323 323 324 324 323 323 324 324 323 321 320 319 319 321 321 322 323 325
302 304 303 303 306 307 311 312 313 314 318 319 319 320 323 316 316 315 317 317 317 318 319 319 320 321 320 321 322 322 323 324 324 323 324 326 323 320 320 321 320 321 323 323 325
302 304 304 304 306 306 309 311 311 315 315 318 319 318 321 323 317 317 316 318 316 318 319 320 320 321 320 320 322 322 322 322 323 323 323 328 323 320 320 321 321 321 321 322 323
303 304 306 305 307 307 308 309 312 312 314 316 317 317 319 320 321 318 317 317 316 317 319 320 319 320 322 319 318 320 321 321 322 325 322 321 321 320 321 321 321 321 321 320 321
302 306 306 306 307 307 307 309 309 312 313 316 318 318 319 320 321 319 317 320 316 316 318 320 320 320 318 318 317 318 318 318 320 320 320 322 321 320 321 321 322 320 318 318 319
302 306 307 307 307 308 307 309 309 310 313 315 317 316 317 320 320 320 320 321 321 320 320 320 320 320 320 318 318 318 318 319 320 320 321 322 321 320 320 320 319 318 318 321 322
302 304 307 307 308 308 308 305 308 310 312 313 315 316 316 317 317 317 317 317 318 320 322 322 321 322 322 320 320 323 321 320 321 321 322 322 320 320 321 320 319 319 320 321 322

GFSSW_925_thetae_069.txt.gz
Theta_e
318 319 322 322 322 322 320 318 317 316 314 313 309 307 307 309 310 317 321 317 314 313 316 317 316 317 317 317 316 318 318 319 319 318 320 322 324 330 331 331 333 335 336 340 338
315 316 317 318 320 322 321 321 319 318 316 314 312 309 307 308 315 318 316 315 310 312 317 317 318 319 319 319 318 318 320 319 319 319 319 319 323 328 330 330 330 335 336 337 337
311 313 315 317 317 317 320 321 321 320 318 316 314 311 307 310 320 320 317 315 310 312 316 317 317 318 319 320 320 320 319 319 319 319 320 319 323 329 328 328 332 333 338 337 336
306 308 311 312 315 316 317 320 319 320 320 319 317 314 307 317 319 321 315 314 314 313 317 316 317 317 319 320 320 319 320 320 320 320 324 323 328 328 328 332 332 335 335 336 335
307 306 304 309 312 314 315 317 318 318 319 320 319 316 312 317 318 317 314 315 316 317 318 317 317 317 320 320 320 320 323 323 323 324 324 325 327 327 328 332 334 334 334 335 333
307 307 306 303 308 311 313 315 318 318 317 318 319 316 315 317 314 313 317 320 319 318 317 317 319 320 321 321 321 325 325 325 325 324 325 326 326 327 333 332 334 333 334 333 332
307 306 307 305 304 309 312 313 315 316 316 317 318 314 315 317 314 315 316 318 318 317 318 318 319 320 322 321 321 323 324 326 327 325 324 324 326 326 332 332 335 333 333 332 331
306 306 306 306 303 307 310 313 314 316 316 318 316 314 319 315 314 313 315 319 319 318 318 319 320 321 321 322 321 321 323 322 326 326 325 324 330 327 332 334 334 334 332 331 326
305 305 306 306 305 305 310 312 314 315 317 316 316 318 318 313 313 313 313 317 320 319 320 319 320 321 322 320 321 321 321 324 324 324 323 324 326 325 330 333 333 333 332 330 329
305 305 306 306 306 306 311 312 315 317 316 316 316 317 317 316 315 314 313 315 319 321 321 321 321 322 323 322 323 321 322 321 321 324 324 324 325 324 328 331 333 332 331 330 329
304 304 305 306 306 307 311 315 318 321 318 315 317 315 315 314 317 316 315 316 319 321 322 321 323 324 323 323 321 321 321 322 323 323 322 323 325 323 328 331 331 333 331 331 329
305 304 304 306 306 308 312 316 316 317 317 315 316 316 317 317 319 318 317 318 319 322 322 323 324 323 322 320 320 320 321 323 323 322 322 323 322 321 327 331 331 332 333 330 330
302 304 304 306 305 308 313 315 316 316 319 314 314 315 315 315 318 319 318 318 320 321 321 323 323 322 322 322 322 323 324 324 323 323 322 322 322 322 324 329 329 329 330 330 330
301 302 304 305 305 309 314 315 316 317 320 313 318 317 315 315 317 317 318 318 320 321 321 321 322 322 322 322 323 324 323 322 323 324 326 324 324 324 323 325 330 329 330 331 331
301 302 303 304 308 314 316 317 318 318 310 315 316 316 316 316 314 316 318 317 319 320 320 320 321 323 322 322 322 322 323 323 324 325 325 323 321 323 321 321 324 328 330 330 330
300 301 304 304 306 308 314 318 319 320 313 314 318 317 318 317 315 317 318 318 318 319 319 320 321 321 321 322 322 322 323 324 325 326 328 325 323 324 323 321 322 324 327 329 330
301 300 302 305 307 307 311 317 319 314 312 313 319 319 319 318 317 317 317 319 319 320 321 320 321 321 322 322 323 323 325 329 329 328 328 324 323 322 322 322 322 323 325 325 328
302 300 301 303 305 307 309 318 314 311 312 317 318 321 320 317 316 318 318 319 319 319 321 321 322 321 321 323 324 324 325 329 329 329 327 322 320 322 321 320 321 322 324 326 327
303 302 302 304 305 307 310 317 312 311 312 312 317 323 321 318 316 317 318 318 318 319 320 321 321 320 321 321 323 324 325 324 327 326 327 324 323 322 320 320 321 320 321 324 326
303 303 303 304 305 308 310 314 313 310 310 314 314 320 321 319 317 317 318 318 318 319 319 320 322 320 320 321 322 324 325 325 325 326 328 324 323 322 321 321 320 320 321 323 327
303 305 303 305 305 310 310 313 313 311 312 315 317 315 320 321 317 318 318 318 318 319 319 320 321 321 322 322 322 323 325 324 324 325 328 326 323 322 321 320 320 321 320 321 323
303 306 303 305 306 307 310 310 311 312 312 315 318 320 317 320 319 317 318 318 317 318 320 320 321 322 322 321 320 323 323 324 326 325 325 326 325 322 321 321 321 321 321 321 322
304 304 304 306 307 309 308 309 310 311 312 315 317 318 320 324 320 318 318 318 318 319 320 320 320 324 322 321 322 322 324 324 325 325 325 334 326 321 321 321 321 321 321 321 322
303 306 307 307 307 308 308 308 309 309 312 313 316 317 319 322 323 320 320 318 320 319 319 321 320 322 324 322 321 322 320 322 323 330 326 324 322 321 320 321 321 322 321 320 322
302 306 307 306 308 309 308 307 308 309 310 312 315 317 318 320 320 323 319 319 318 317 320 321 321 320 319 320 319 319 320 320 321 322 324 322 321 319 320 320 321 322 322 322 321
302 306 306 308 308 309 308 308 307 308 309 311 314 315 317 318 320 321 320 319 319 319 320 321 323 321 320 319 319 319 318 319 318 318 319 319 319 320 321 320 320 320 321 321 323
301 304 308 307 308 309 311 309 307 307 309 310 311 313 316 317 320 318 317 316 318 322 321 321 324 322 323 320 320 324 319 319 319 319 320 321 321 320 320 320 320 320 321 322 324

GFSSW_925_thetae_072.txt.gz
Theta_e
313 314 316 317 318 318 318 320 321 321 320 319 318 316 313 309 307 314 319 320 320 314 317 319 316 317 317 319 318 317 317 318 321 321 320 321 321 325 322 322 329 333 341 338 335
310 311 312 314 315 317 317 317 319 320 320 321 320 319 316 313 312 317 318 317 315 312 316 319 318 318 319 319 318 318 318 320 321 319 319 319 319 328 327 328 327 326 338 337 336
308 307 307 310 312 313 315 316 317 319 318 318 320 320 319 314 319 321 316 317 315 310 315 318 318 318 318 319 320 320 319 319 319 320 320 320 321 326 328 331 325 327 337 337 335
308 307 307 305 305 310 312 314 315 316 319 318 318 319 319 316 321 321 317 316 315 310 315 318 318 318 318 319 320 320 319 320 321 321 321 320 322 326 325 332 332 334 336 336 334
307 307 307 307 304 304 309 312 313 315 317 318 317 318 318 320 319 318 316 315 315 313 316 319 318 318 317 319 320 320 320 322 321 321 321 321 322 323 325 332 333 333 333 333 333
306 306 307 307 307 304 305 309 311 314 315 316 316 317 320 321 317 316 316 322 318 318 318 319 318 318 320 320 321 321 324 323 324 325 325 323 322 327 328 329 333 333 333 333 331
306 306 306 306 306 306 303 307 311 313 314 315 316 317 319 319 316 317 316 318 320 319 319 317 317 320 321 322 322 321 321 323 326 324 322 325 323 328 325 331 333 333 333 332 329
306 305 305 305 306 306 304 305 309 311 313 315 316 316 317 314 316 317 316 316 319 319 318 319 319 320 321 321 321 322 320 322 325 325 324 326 326 328 325 325 331 332 330 328 327
306 305 305 305 306 306 305 305 308 309 312 315 316 318 318 314 317 316 315 316 319 319 318 319 320 321 321 322 322 320 321 322 325 325 326 324 324 328 325 325 330 332 329 326 328
304 306 305 305 305 306 305 306 304 313 317 317 316 316 316 314 316 316 315 314 319 320 320 320 320 320 321 322 324 323 323 324 322 324 325 324 324 326 329 331 330 332 331 328 328
302 305 305 305 304 306 306 311 316 322 320 319 317 315 314 317 315 316 315 314 317 320 322 321 321 321 322 324 324 322 321 321 323 324 324 322 324 325 326 327 330 331 330 329 328
302 302 303 305 304 306 306 313 313 317 317 315 318 318 316 317 319 318 316 315 317 320 321 322 322 321 322 324 321 320 321 321 323 324 322 322 324 323 325 328 329 331 330 330 328
302 301 302 304 304 305 307 310 314 316 318 313 313 312 313 315 318 319 317 315 317 319 321 323 322 323 322 323 322 322 322 323 325 324 324 324 324 322 324 327 328 331 331 331 330
302 301 301 303 304 309 309 312 313 317 320 310 313 314 314 314 315 317 319 318 317 318 320 322 321 323 323 323 323 324 323 324 323 323 325 325 328 324 323 325 327 330 332 327 328
302 301 301 303 306 309 314 315 317 319 312 312 314 317 316 314 315 315 317 318 319 319 320 321 322 321 323 322 322 323 323 324 324 324 325 326 328 324 323 324 327 328 331 330 330
302 301 301 304 305 306 309 310 317 320 311 313 318 318 317 315 315 316 316 318 318 318 320 320 321 320 321 322 322 322 323 324 324 325 329 326 325 326 325 323 324 327 329 330 332
303 302 302 303 306 307 309 310 318 316 310 311 317 319 317 318 316 316 316 319 320 319 322 320 320 320 321 321 322 322 324 328 332 331 332 327 326 324 326 324 322 323 327 329 330
303 303 303 302 305 306 308 314 316 310 312 315 315 319 319 319 318 317 317 317 320 318 320 321 322 320 321 322 323 323 324 332 337 336 331 326 324 319 322 322 321 322 323 327 328
302 303 304 303 303 306 310 313 314 311 310 312 316 319 322 320 319 319 319 318 319 319 320 322 321 319 321 321 322 324 325 325 330 331 334 327 325 322 321 320 320 321 322 325 327
304 304 304 304 303 306 309 309 311 311 310 311 313 318 322 322 319 318 318 318 319 318 320 322 323 321 321 321 321 322 324 327 327 331 331 324 323 327 322 321 321 320 322 324 326
304 305 304 304 304 308 310 309 309 309 312 312 311 314 314 320 320 318 317 319 319 319 319 321 323 323 321 321 321 322 323 327 325 326 330 332 327 325 322 320 321 321 322 322 325
304 305 304 304 307 307 308 309 308 308 309 312 314 315 315 316 322 318 318 318 319 318 319 321 322 324 321 321 321 322 323 325 329 327 330 333 330 324 324 323 322 322 322 323 323
304 304 303 305 307 307 307 308 308 308 309 311 313 315 317 321 320 321 320 320 319 319 319 321 322 324 323 322 322 322 321 323 325 326 328 333 328 324 322 321 322 322 322 322 323
302 304 306 307 307 307 308 308 308 308 308 310 313 313 318 319 321 322 321 319 319 320 320 322 323 323 326 325 323 322 321 322 326 330 329 328 325 324 322 322 322 323 322 322 323
301 305 307 307 307 308 308 307 308 309 308 309 311 313 314 320 318 320 321 319 317 318 320 322 325 323 321 320 321 321 322 322 322 323 327 328 324 322 322 321 322 322 323 323 322
300 305 307 307 307 308 309 310 308 308 307 309 311 312 314 319 320 321 319 321 321 321 320 319 323 322 323 320 321 321 322 322 321 320 320 322 322 321 320 320 322 320 320 322 322
302 304 307 308 308 308 309 309 309 308 308 308 309 311 316 317 318 321 319 319 319 320 324 322 322 322 324 322 320 321 321 320 319 320 320 321 321 321 321 321 321 321 321 321 323

GFSSW_925_thetae_075.txt.gz
Theta_e
308 309 310 311 312 314 315 316 316 316 318 319 318 319 320 319 318 315 314 317 321 321 314 317 314 313 314 313 314 314 310 310 314 318 317 322 319 324 321 322 326 325 323 326 333
308 307 307 306 307 310 313 314 315 315 316 317 318 317 318 319 318 316 318 317 318 316 313 316 317 315 314 314 314 312 310 312 315 317 318 318 316 326 326 327 327 327 324 334 335
307 307 307 307 306 303 305 310 312 313 314 316 318 317 317 318 318 320 319 318 316 314 311 315 316 316 315 314 314 314 314 315 315 318 316 316 317 323 324 329 329 327 330 336 332
306 307 307 307 307 306 303 304 308 311 311 314 316 316 315 318 318 320 316 316 316 313 310 315 316 316 315 314 314 316 316 316 316 320 321 319 316 320 332 331 328 332 336 334 331
306 306 306 307 307 306 306 303 304 308 311 313 315 315 316 320 319 316 317 316 315 314 314 315 316 317 315 314 315 318 319 319 322 321 322 322 318 321 330 328 332 334 334 332 331
306 306 306 305 306 306 306 305 303 305 310 312 314 315 318 321 314 316 317 316 316 316 315 315 318 317 315 318 317 317 318 319 322 321 322 323 322 324 325 325 328 333 332 330 327
305 306 306 305 305 305 306 306 304 303 307 311 313 315 317 317 309 312 314 316 318 318 317 318 318 316 316 318 319 319 319 318 323 322 322 320 322 325 324 326 325 326 331 328 327
303 305 306 305 305 305 305 306 305 302 304 309 312 316 317 310 310 315 316 316 316 319 319 319 318 316 319 318 319 319 317 318 317 323 322 321 323 326 326 325 327 330 329 326 325
302 302 306 305 305 304 304 305 304 300 307 311 314 316 319 315 314 314 314 315 317 316 318 318 317 319 319 319 318 319 319 318 319 322 323 322 324 326 326 327 327 327 326 324 324
303 302 303 306 305 304 304 305 299 307 311 316 317 316 316 316 315 316 316 315 315 318 318 318 317 318 316 317 321 321 321 322 322 323 324 323 324 326 326 327 327 326 324 325 325
303 303 301 303 304 304 304 305 312 316 316 320 318 315 313 316 316 315 316 314 313 315 319 318 318 319 316 318 320 321 322 319 320 322 322 321 320 322 325 326 327 326 325 326 325
303 303 302 301 302 304 304 307 312 312 315 317 320 319 316 318 318 316 316 313 313 313 318 319 320 319 319 319 320 322 319 319 318 323 322 319 319 320 321 327 327 328 327 327 327
304 303 302 301 300 303 304 306 309 310 315 315 314 312 313 314 317 316 316 314 313 313 316 320 321 320 320 320 321 320 320 320 322 321 321 322 321 321 322 325 326 327 326 327 326
302 303 302 301 302 306 308 310 313 314 318 313 312 312 312 311 314 314 315 315 313 314 316 318 320 321 321 321 322 321 321 322 323 321 321 321 324 323 322 324 326 329 327 326 327
300 303 302 301 303 305 307 308 309 318 309 309 311 313 312 311 313 313 314 316 314 314 315 317 320 321 321 322 322 321 322 323 323 322 322 324 327 323 321 324 325 330 328 327 326
301 301 303 302 301 302 305 308 311 319 319 312 316 317 315 312 312 313 312 314 316 315 316 316 317 318 319 321 321 321 321 321 322 321 324 324 327 322 320 321 324 327 329 328 326
302 302 303 302 302 304 306 310 316 318 308 307 316 318 317 314 313 313 313 314 316 318 318 318 317 318 319 319 320 320 322 325 328 325 326 326 327 324 322 322 321 325 330 326 326
302 303 303 303 302 302 307 312 315 309 310 312 312 314 318 317 314 314 313 314 316 317 316 318 319 318 318 319 321 319 321 327 332 331 332 328 328 320 322 322 318 318 326 327 327
302 302 303 303 302 302 307 311 310 309 309 309 309 309 317 317 318 315 315 315 315 317 317 317 318 318 318 320 320 322 322 322 330 328 331 327 324 323 320 317 318 319 319 324 329
303 303 303 303 303 303 307 307 307 308 308 309 310 311 311 317 319 318 317 317 316 316 317 319 322 319 318 319 319 320 322 324 324 331 332 326 325 324 321 322 318 316 318 320 321
303 304 303 303 303 303 306 306 307 307 307 308 308 310 313 315 315 318 318 317 316 315 317 317 319 320 320 319 320 320 320 322 325 326 324 324 324 321 322 320 317 317 318 319 320
303 304 303 304 306 304 304 304 305 306 306 307 307 309 313 313 314 316 321 317 316 317 317 316 321 321 320 319 320 320 320 322 328 327 325 322 323 321 319 320 318 317 317 317 320
302 303 303 304 307 305 304 305 305 306 307 307 307 309 309 311 315 320 323 319 317 317 318 318 320 322 321 320 320 319 320 321 322 323 325 324 326 323 321 319 318 318 318 317 317
299 303 305 306 305 306 305 306 307 306 307 307 308 308 309 311 315 319 319 322 318 317 319 319 321 322 322 321 322 321 320 320 321 322 323 324 325 323 322 320 317 316 317 319 319
300 302 304 307 307 306 305 306 307 307 306 307 307 307 309 311 316 316 321 321 319 318 318 319 321 320 320 320 322 321 321 320 319 321 327 324 324 323 319 318 318 319 318 319 319
299 304 304 305 305 307 306 308 307 307 307 307 308 307 308 309 315 316 318 322 322 318 317 318 319 320 321 321 320 320 320 319 319 320 320 319 323 321 318 316 317 317 320 319 319
301 302 304 305 306 306 306 306 308 308 307 306 307 307 306 308 315 317 319 318 319 320 320 319 320 321 321 321 321 319 318 320 320 320 319 319 317 317 317 318 318 317 316 317 320

GFSSW_925_thetae_081.txt.gz
Theta_e
307 308 307 307 306 306 306 305 304 303 303 305 307 309 310 312 308 309 313 313 318 315 313 315 312 312 311 310 310 307 311 311 312 312 312 313 317 321 320 327 326 326 326 323 332
307 307 307 307 305 306 306 306 305 305 303 303 306 309 311 312 312 315 309 317 316 317 315 315 316 313 312 312 310 309 309 312 310 310 313 313 313 321 324 326 326 326 326 325 333
307 307 306 306 305 305 305 305 305 305 305 304 303 309 310 312 315 309 317 317 318 318 314 313 315 314 314 312 312 310 313 312 312 312 311 313 318 322 324 326 326 327 324 333 330
306 306 306 306 306 305 305 305 304 304 304 305 303 307 310 315 304 318 315 316 315 314 312 312 313 315 314 314 312 314 311 312 312 314 317 318 321 332 326 328 327 326 329 332 329
302 302 304 305 306 306 305 305 304 304 304 303 303 306 313 315 316 310 316 312 313 311 310 311 313 314 315 314 313 312 313 314 314 314 316 318 320 329 329 329 332 334 333 332 329
302 302 301 303 304 305 306 305 304 304 304 303 303 306 313 314 307 308 312 315 314 311 311 312 311 312 315 315 314 315 315 315 314 315 317 322 327 325 325 330 325 327 329 328 327
303 302 302 301 302 304 305 305 304 304 303 303 303 309 312 310 304 308 312 312 316 314 313 313 313 314 315 316 315 316 316 314 314 315 318 317 322 323 324 330 329 328 330 326 324
304 303 303 302 301 302 303 303 303 302 302 303 306 311 312 306 306 307 308 308 308 312 313 315 315 314 315 314 315 316 316 316 315 316 317 318 317 318 326 326 325 331 328 324 324
302 303 303 302 301 300 299 299 301 303 303 304 310 311 313 310 312 312 315 312 308 313 314 315 316 316 316 316 315 315 315 316 317 316 317 319 318 318 323 325 327 331 325 323 323
302 301 303 303 302 300 299 302 312 309 308 310 314 312 310 311 312 315 314 313 312 313 314 314 314 314 313 314 318 316 317 318 318 317 319 320 320 323 323 327 329 327 324 322 322
302 302 302 303 302 299 300 303 307 309 309 313 314 314 313 314 316 316 316 312 312 313 313 314 315 317 316 314 316 317 318 317 316 316 318 318 320 318 322 323 324 324 323 321 321
301 302 301 303 302 299 305 304 306 306 309 310 311 310 312 314 315 314 315 313 312 313 314 316 318 316 315 314 316 317 317 317 316 316 317 318 318 315 322 324 323 324 323 321 321
300 301 301 302 303 300 303 306 304 306 311 311 310 311 311 310 313 314 315 312 312 312 313 314 317 317 316 317 318 317 318 318 317 317 317 318 317 317 322 324 324 323 323 322 321
299 300 299 300 301 300 301 302 305 307 310 309 312 310 311 312 314 312 313 313 312 313 311 312 313 317 317 317 317 319 317 318 318 318 321 318 320 317 319 325 326 325 323 323 322
298 300 300 300 304 301 299 301 305 309 297 303 310 310 310 308 306 311 311 311 313 312 311 312 313 314 317 319 317 319 318 319 319 319 319 319 321 318 320 324 325 326 325 323 322
298 300 301 300 303 301 301 303 309 312 308 306 309 311 311 309 309 311 311 311 311 313 311 311 313 314 315 316 317 318 319 319 318 318 321 320 320 319 317 320 324 325 325 324 323
299 299 301 301 301 301 301 305 314 311 308 308 310 307 307 310 310 310 311 311 314 314 316 312 312 313 316 317 316 317 318 320 321 321 322 320 323 321 319 318 322 326 326 325 323
299 300 301 301 302 302 302 307 312 310 310 309 307 307 306 312 313 314 310 310 310 314 314 316 315 312 312 315 316 316 318 320 324 323 322 325 328 324 319 317 317 324 325 325 323
300 301 301 301 302 302 301 305 304 308 307 306 306 309 310 308 311 314 314 312 309 310 316 316 315 314 313 314 315 316 318 318 320 324 325 324 323 320 317 317 317 320 324 324 324
301 300 300 300 302 302 302 301 303 305 305 305 306 306 308 306 308 313 314 314 313 315 311 315 317 315 315 314 315 316 318 321 322 327 329 325 324 324 320 317 315 319 324 324 324
301 302 301 301 302 303 302 300 302 301 302 305 307 306 305 305 306 312 314 312 315 316 318 313 314 316 316 315 315 317 319 319 321 322 324 325 321 317 319 317 315 315 323 324 324
301 302 302 301 303 303 302 300 302 302 303 303 304 304 305 306 306 307 311 311 313 316 317 319 315 316 316 315 315 315 318 320 321 323 321 321 322 317 317 317 316 313 315 322 324
302 302 302 302 302 303 303 302 301 301 303 304 306 305 305 305 306 307 308 313 315 316 317 318 319 317 317 316 315 317 317 318 319 320 323 323 322 318 317 317 314 313 311 313 319
298 302 303 303 302 301 303 305 305 302 301 302 304 304 305 306 306 308 310 312 315 316 317 318 321 322 319 316 316 318 318 318 320 320 320 322 322 320 319 318 318 316 312 311 313
299 301 303 304 304 304 303 304 306 305 303 302 303 302 303 304 305 305 306 307 313 315 313 318 320 319 318 315 319 319 319 319 320 318 320 319 321 320 318 317 317 317 315 313 313
299 302 303 301 303 305 304 304 304 305 304 305 305 306 304 304 304 304 305 305 313 315 314 314 319 318 319 315 316 319 321 321 320 319 318 318 318 317 316 315 316 315 313 314 314
300 298 302 303 303 305 305 304 305 303 305 304 304 304 304 305 304 304 304 305 311 315 311 310 316 316 319 319 321 322 320 320 320 318 317 319 318 318 317 316 316 315 313 313 313

GFSSW_925_thetae_084.txt.gz
Theta_e
307 308 308 308 306 305 305 305 305 304 304 304 303 302 306 306 304 307 309 308 316 314 313 311 311 311 310 309 309 306 309 310 312 311 313 311 315 319 320 325 325 325 326 323 330
308 308 307 307 306 306 306 305 305 304 304 304 303 302 305 308 309 313 311 310 316 314 313 314 313 310 310 311 309 309 309 311 310 310 312 312 312 313 324 325 326 325 325 324 332
306 306 306 306 306 306 306 306 305 305 304 304 303 302 304 309 311 306 316 316 315 315 313 313 314 313 314 312 311 309 312 311 312 310 310 311 314 319 322 324 324 325 326 326 331
301 302 302 303 304 305 305 305 305 305 304 304 303 302 305 313 303 315 314 315 317 318 312 311 312 313 313 313 310 312 310 310 311 312 315 316 317 327 321 323 327 325 326 332 330
302 302 301 302 301 302 304 304 305 305 304 304 303 304 307 310 311 307 314 313 312 312 310 310 312 313 314 312 312 311 312 312 312 312 312 315 317 323 327 325 332 333 332 331 330
304 303 301 301 302 301 302 303 303 303 303 302 302 305 312 305 305 308 311 313 313 311 310 309 310 311 313 314 313 313 313 313 312 312 314 318 321 325 322 328 326 330 330 330 329
304 304 303 303 302 301 300 299 299 299 299 300 303 307 310 305 303 307 310 310 315 313 311 311 312 313 314 315 314 314 315 312 313 314 316 315 318 325 322 330 328 326 327 326 324
300 300 301 303 303 301 299 298 298 302 303 304 306 308 309 303 303 306 306 307 306 308 312 314 314 312 314 314 314 316 313 315 312 315 316 316 318 315 325 329 330 327 326 324 323
302 302 300 301 303 302 300 297 305 307 305 304 308 309 308 306 311 310 313 312 312 308 311 314 314 314 314 315 314 313 315 314 315 315 317 318 317 317 325 325 324 324 326 321 323
301 302 302 301 302 303 299 306 311 309 307 309 311 308 303 305 313 315 313 313 311 311 313 314 314 314 312 313 315 316 316 316 316 316 315 316 317 315 322 324 323 325 324 320 320
301 301 302 301 301 302 303 305 304 305 306 310 309 310 311 314 315 314 314 311 310 312 312 312 313 315 315 314 313 314 316 316 314 314 316 314 313 315 319 323 323 324 323 320 319
301 300 301 301 300 301 303 305 305 303 307 306 307 308 309 311 312 310 314 312 312 313 312 315 315 314 313 313 315 316 317 316 314 314 315 315 316 315 317 322 322 323 323 320 318
300 299 299 299 298 301 299 304 301 303 310 309 309 310 310 310 310 309 310 312 312 312 313 314 315 315 315 315 316 315 316 316 315 315 314 315 316 316 317 322 321 321 322 321 318
299 300 299 300 299 302 300 300 301 303 310 308 311 309 309 310 311 309 310 311 312 312 312 313 313 314 316 316 316 316 315 316 317 317 318 316 319 316 316 317 324 322 322 322 319
299 299 299 300 301 302 300 300 301 307 302 303 310 309 309 309 306 311 311 311 310 311 311 312 312 313 314 316 315 316 316 317 317 317 317 318 319 316 318 319 319 322 322 322 320
298 298 299 301 301 300 301 301 307 312 308 305 310 311 310 310 309 310 310 309 310 312 310 310 311 311 312 315 315 317 318 318 317 317 320 318 319 317 317 318 320 320 322 322 321
297 297 299 301 300 300 300 303 313 310 306 308 308 306 307 310 311 311 311 310 310 312 312 312 311 311 314 314 315 317 316 319 320 321 322 317 320 319 317 316 316 318 321 322 321
297 298 300 300 301 301 301 305 310 308 310 306 305 307 309 306 312 313 310 309 308 312 309 308 309 311 311 314 316 316 316 319 324 323 321 320 323 321 319 317 315 315 320 321 321
296 299 300 300 301 302 300 301 306 305 306 305 304 307 308 305 308 311 314 314 312 310 315 315 313 312 312 312 314 315 318 316 319 321 323 321 321 319 318 316 315 315 322 322 321
299 299 300 300 301 302 302 300 299 304 304 304 304 305 304 303 303 304 311 313 315 315 315 312 317 314 314 311 312 314 316 319 318 323 326 322 323 321 320 319 314 317 321 321 321
299 301 299 299 301 302 301 299 301 301 300 303 305 304 305 305 304 306 308 311 314 315 315 317 312 312 312 314 313 315 316 318 319 319 322 324 321 316 319 318 317 313 316 320 320
299 301 300 300 302 302 301 300 300 300 302 301 304 304 303 304 304 304 308 308 310 315 317 317 319 316 314 312 312 313 314 316 319 321 319 318 319 316 315 316 315 314 312 317 320
299 300 300 301 302 301 301 301 301 300 301 303 305 304 303 303 303 304 304 307 313 316 316 314 319 321 316 314 314 314 315 316 318 318 320 322 320 316 315 316 314 314 312 311 317
299 301 301 302 300 299 300 302 302 302 300 300 303 302 304 304 305 306 306 306 306 305 316 313 316 319 322 320 318 318 315 315 318 319 319 320 319 319 318 317 316 314 311 310 311
298 300 301 298 302 301 299 301 301 303 302 300 300 301 302 303 302 302 303 303 303 306 314 315 315 315 317 319 319 319 318 315 317 317 319 318 318 317 317 317 316 315 315 313 310
298 300 300 304 301 302 302 302 302 302 303 303 302 304 302 302 302 304 305 305 305 312 313 312 313 314 316 313 317 318 317 317 317 317 317 316 316 315 315 315 315 315 315 313 312
297 298 300 302 301 303 303 303 303 302 304 303 303 304 304 304 303 303 302 303 303 304 311 313 314 314 314 313 316 318 315 318 318 317 317 319 316 314 315 314 314 315 313 313 313

GFSSW_925_thetae_087.txt.gz
Theta_e
308 308 308 308 308 307 307 306 305 305 304 304 303 301 299 300 300 307 310 306 313 312 314 312 311 312 309 311 310 309 316 316 316 314 317 313 315 317 322 326 327 327 327 325 330
307 307 307 306 306 306 306 305 305 305 305 304 303 303 300 301 307 311 307 309 315 314 311 311 311 310 312 312 312 314 316 316 314 314 315 315 314 314 321 325 326 327 326 326 332
302 302 302 303 303 303 304 304 304 305 305 304 303 304 301 302 308 305 315 310 315 313 313 314 313 314 315 313 313 312 316 314 314 314 313 314 314 314 322 323 324 325 326 326 332
303 302 301 301 302 303 301 301 303 303 303 303 303 302 303 308 303 311 314 314 314 313 312 312 313 315 316 316 313 314 314 313 314 313 314 315 317 323 323 323 328 325 325 329 332
305 304 304 303 302 301 301 300 300 300 299 299 300 303 305 306 307 303 309 313 312 315 310 311 313 314 316 314 312 313 314 313 313 312 314 314 317 319 323 326 330 329 330 333 332
302 302 303 303 301 302 302 300 299 297 298 300 303 305 311 301 302 305 308 311 310 310 309 309 312 313 315 315 314 315 313 314 315 316 315 316 318 324 324 329 335 334 334 332 330
303 300 299 298 298 300 301 301 298 300 303 304 305 306 307 306 302 306 310 309 314 311 310 309 311 313 314 316 314 315 317 316 316 315 316 316 320 323 323 331 330 331 330 329 327
302 302 301 302 301 299 300 299 300 305 307 307 306 306 306 302 302 303 303 305 304 310 311 313 313 313 314 314 316 317 315 317 314 316 316 318 322 319 321 331 331 329 328 326 327
301 301 301 302 301 299 298 298 305 308 303 305 306 307 306 304 308 308 310 310 309 307 309 313 313 316 315 316 316 315 316 316 316 316 318 319 321 319 325 329 331 331 328 327 326
301 301 301 301 301 299 298 304 306 308 308 309 309 307 303 304 313 314 313 313 311 311 313 314 316 318 316 316 315 314 318 317 318 317 316 317 318 318 319 325 326 326 329 327 326
301 301 300 299 299 298 300 305 305 305 304 308 307 308 308 310 313 314 312 311 311 311 313 315 316 319 319 317 315 315 316 318 317 316 316 317 317 318 317 323 325 327 329 328 325
300 300 300 298 299 297 301 305 302 301 305 305 306 305 306 307 309 309 312 313 312 312 313 315 318 316 315 316 318 317 318 318 317 315 316 318 319 319 318 321 323 325 328 328 324
299 300 300 299 299 301 301 302 300 301 308 308 308 308 308 307 308 309 307 312 313 313 313 315 316 315 315 316 318 318 319 318 317 316 316 318 320 320 319 321 323 324 326 327 325
299 299 299 299 299 300 300 301 300 302 310 308 310 309 310 309 310 308 307 308 313 314 313 313 312 315 316 317 317 318 316 317 317 318 316 318 323 320 321 319 322 324 325 326 324
298 298 299 298 300 300 300 300 301 305 305 303 309 308 309 310 308 310 308 309 307 313 313 314 313 314 315 317 316 317 317 317 318 318 319 320 322 321 317 321 321 321 324 325 325
296 296 298 298 301 300 300 300 306 313 307 305 310 311 310 310 309 309 311 310 310 308 311 312 311 313 314 314 316 317 317 318 318 320 324 322 321 322 321 321 321 321 323 325 325
296 298 297 299 300 301 301 302 313 310 305 308 307 306 307 308 312 312 311 311 311 310 310 312 312 312 314 314 316 317 319 321 324 324 324 320 321 322 320 319 319 321 321 325 325
297 297 297 298 300 301 301 306 308 304 309 306 305 306 309 304 308 313 310 310 312 311 312 309 308 312 312 315 317 318 320 321 320 325 324 320 323 322 321 320 320 319 318 323 325
297 296 297 298 300 300 302 304 303 305 305 305 304 307 308 304 305 307 314 314 314 316 314 316 310 311 311 313 316 317 318 318 320 322 326 323 323 321 321 321 318 318 321 325 325
297 298 298 299 300 301 301 298 299 302 302 304 304 305 304 303 303 303 310 313 314 313 316 317 316 314 313 312 313 316 317 320 319 320 322 322 324 322 322 322 321 319 320 324 325
297 298 298 298 299 301 300 299 300 300 302 301 305 304 304 304 305 305 309 310 311 311 316 316 316 315 313 313 314 314 315 318 319 321 321 323 324 322 323 322 320 321 318 321 325
297 299 298 299 300 300 300 299 299 300 301 302 304 303 302 303 303 301 304 306 305 314 314 315 319 321 318 315 314 313 314 315 318 317 323 322 322 318 322 320 320 320 319 316 321
297 298 299 299 300 299 299 300 300 300 299 302 304 304 304 302 299 302 304 305 307 309 307 308 314 312 317 315 315 317 316 316 316 318 319 323 322 318 317 318 318 319 320 319 316
297 298 299 300 300 300 300 301 301 301 300 300 301 303 304 305 305 306 305 304 305 303 306 313 313 308 311 319 316 316 316 317 320 321 319 320 318 320 319 319 320 319 317 316 314
296 299 298 300 300 300 300 300 300 300 301 301 300 301 303 304 303 303 302 303 304 307 307 313 314 314 314 313 314 316 315 317 320 321 319 317 318 319 319 321 321 320 318 317 317
295 297 298 300 299 301 302 300 300 300 302 303 301 302 301 302 302 302 304 305 305 308 312 312 314 313 313 314 315 314 314 315 319 319 319 317 317 318 319 318 317 318 318 318 318
295 297 298 299 299 301 301 301 301 301 301 302 302 302 303 304 302 303 303 303 304 305 305 307 310 312 314 313 314 315 315 317 318 319 318 319 319 317 317 317 317 318 318 317 318

GFSSW_925_thetae_090.txt.gz
Theta_e
306 306 306 307 305 305 304 304 304 304 304 304 304 303 302 301 300 310 311 310 310 311 315 318 314 315 316 317 317 317 318 318 317 317 318 319 319 320 322 324 326 327 328 328 331
303 304 305 305 303 303 302 301 301 303 303 303 302 302 301 301 309 310 311 313 311 311 316 316 315 315 316 316 317 317 318 318 318 317 319 319 319 320 320 321 323 325 328 328 332
305 305 305 305 305 303 302 301 300 300 300 299 299 300 300 302 311 309 314 312 312 314 314 314 314 315 315 316 316 316 317 317 317 318 318 319 319 320 320 321 322 323 325 330 332
305 305 306 306 306 305 302 301 300 298 298 298 298 300 300 311 309 315 313 314 314 314 314 315 316 316 317 317 317 316 317 316 317 318 318 319 320 320 320 321 323 327 328 329 333
302 301 300 300 301 300 298 300 300 299 297 300 303 305 306 309 306 306 306 313 316 315 314 317 318 318 318 318 318 318 317 317 317 317 317 318 319 320 320 320 322 328 328 330 333
302 302 301 301 302 301 299 298 298 298 301 304 306 305 308 308 304 307 307 312 313 316 317 315 316 317 316 317 317 318 317 317 317 317 318 318 318 320 320 326 327 331 331 334 334
302 302 301 301 301 301 299 296 297 299 304 307 307 307 308 306 305 309 308 311 314 312 315 315 315 314 316 317 317 317 317 317 317 318 318 318 318 319 323 328 330 334 334 333 331
302 301 301 301 300 300 297 296 297 303 308 304 306 308 309 305 305 307 306 306 307 310 312 312 313 315 317 317 317 318 318 319 318 317 318 320 321 323 323 326 329 331 331 331 330
301 301 301 301 300 297 296 296 303 307 304 305 307 308 307 304 307 309 308 308 308 307 313 314 315 316 317 317 317 318 319 320 319 318 317 321 322 323 324 325 327 329 331 331 330
300 301 301 300 299 297 296 301 305 308 309 309 308 308 307 305 311 314 315 314 314 309 313 315 317 318 318 317 320 320 320 319 319 319 320 320 322 322 322 324 326 328 331 331 331
300 300 300 300 300 298 300 306 306 309 305 308 308 308 307 309 310 313 314 315 313 311 310 315 317 319 317 318 318 318 318 318 318 318 319 318 319 322 322 322 325 327 329 331 331
300 299 299 299 299 297 303 306 303 303 306 306 306 307 306 306 308 309 313 316 315 315 312 317 318 316 317 318 318 318 317 318 318 318 318 318 319 322 322 323 324 326 329 330 331
299 299 299 299 299 302 303 304 302 302 307 307 308 309 309 308 308 307 309 315 316 316 313 317 316 316 317 318 318 318 319 319 318 319 319 318 319 320 322 323 324 326 327 329 331
298 299 298 298 301 302 303 304 302 304 311 309 310 311 311 309 310 309 308 310 315 315 315 314 314 316 317 316 316 317 317 318 319 319 320 319 319 321 322 322 322 323 328 328 330
298 297 297 297 300 302 302 302 302 306 305 305 311 310 311 311 311 312 310 308 308 315 316 315 315 314 317 317 315 317 316 317 318 320 320 319 318 321 322 322 322 324 325 328 330
298 296 296 298 301 301 302 302 307 311 305 307 312 311 311 311 311 312 311 311 308 309 313 315 314 315 315 316 317 318 319 319 320 321 323 320 319 321 322 322 322 323 325 327 329
297 296 298 299 301 302 302 303 309 303 304 307 310 308 309 311 313 313 313 313 312 308 308 310 311 313 314 315 315 317 317 321 324 324 323 318 320 321 322 322 323 322 324 328 329
297 297 299 299 300 301 302 304 304 301 305 308 307 307 310 306 309 314 313 312 314 313 314 309 309 309 312 313 316 317 318 322 324 324 323 321 322 322 322 322 323 324 325 325 329
298 299 299 299 299 301 304 302 300 302 304 307 306 307 310 305 305 311 315 315 312 312 314 315 309 313 311 313 313 317 320 319 322 320 323 323 323 323 323 323 323 323 322 325 328
299 298 298 299 300 301 303 300 300 304 303 304 304 305 309 305 305 305 315 315 312 309 317 314 317 314 315 314 313 314 316 319 320 321 322 322 324 323 322 322 322 322 323 326 328
298 300 298 300 301 302 302 299 299 300 302 303 306 305 305 304 303 302 308 311 308 310 313 313 318 316 316 316 316 316 317 318 320 320 322 323 322 322 322 322 322 322 324 325 329
298 300 300 300 301 301 301 299 299 300 301 302 303 302 303 302 302 302 301 304 305 304 308 308 316 318 318 316 316 317 317 317 320 321 322 323 322 321 322 324 324 324 323 322 327
299 299 299 300 301 300 300 300 299 299 300 301 303 304 303 301 300 302 303 307 307 308 308 308 315 315 315 317 318 318 319 319 320 320 320 325 322 319 318 320 322 322 323 323 323
299 300 300 300 301 301 300 300 300 300 300 300 300 302 302 301 302 300 305 307 307 306 305 307 309 308 310 312 314 315 316 316 318 323 321 321 320 319 318 319 321 321 323 323 323
296 299 299 299 301 301 301 300 299 301 301 302 301 301 302 303 304 304 304 306 306 309 310 308 307 309 311 311 311 312 312 314 316 317 321 321 321 319 318 318 318 319 321 322 321
300 299 299 299 300 300 301 302 300 300 300 302 302 302 302 304 304 304 304 304 306 307 311 312 312 311 312 312 312 311 311 311 313 315 316 318 320 319 319 318 318 319 321 322 322
295 297 299 298 299 301 301 301 302 301 301 301 303 303 303 304 304 304 305 305 306 307 308 309 311 311 310 311 312 313 313 312 312 314 317 321 320 319 319 318 318 319 321 321 322

GFSSW_925_thetae_093.txt.gz
Theta_e
305 306 307 307 306 303 304 302 300 300 300 300 299 299 299 300 300 310 312 312 315 311 316 318 318 317 317 319 320 319 319 321 321 321 320 320 320 320 321 321 321 322 325 327 329
307 307 307 307 307 307 306 302 301 301 300 299 298 298 299 300 309 310 313 310 309 309 317 319 320 317 318 319 320 319 320 320 321 320 319 320 320 320 320 321 321 322 325 327 329
303 303 305 305 305 305 302 298 298 300 300 300 299 300 299 301 312 316 313 313 315 313 316 318 318 318 319 319 319 319 319 320 320 319 319 319 320 320 321 321 322 323 324 326 330
302 302 303 304 304 304 302 299 298 297 298 298 301 305 301 310 312 315 314 314 314 317 317 318 318 318 318 319 319 318 318 319 320 319 319 319 320 320 320 321 322 322 326 328 330
303 303 303 303 304 304 302 300 297 296 297 299 303 307 307 310 313 311 307 311 317 317 317 318 319 319 318 319 319 319 319 320 320 319 319 319 318 318 319 320 321 324 328 328 330
302 302 302 301 302 302 300 298 296 296 297 301 306 307 311 309 309 307 309 310 312 318 318 318 320 321 320 320 320 320 320 320 320 320 320 319 319 319 319 320 323 327 330 330 333
302 302 302 301 301 300 298 295 295 296 300 304 307 309 311 310 307 309 310 310 312 313 318 318 319 318 318 319 319 319 320 320 320 320 320 320 319 319 319 322 325 328 332 332 333
302 301 301 301 301 300 298 295 295 300 305 306 303 309 311 307 307 307 308 308 310 313 314 316 317 318 318 319 319 319 320 321 321 322 320 320 319 321 322 324 325 329 332 332 331
302 301 300 301 300 300 297 295 298 304 308 306 311 311 311 307 307 308 309 307 308 308 308 311 315 317 318 319 320 320 321 322 323 321 320 320 321 323 325 325 325 327 329 331 331
302 301 300 300 299 299 297 296 305 306 310 310 311 311 311 307 310 311 315 315 312 312 309 312 314 315 316 318 321 320 320 322 323 323 320 320 320 322 322 324 324 325 327 331 332
302 301 300 299 299 299 299 306 308 312 311 309 310 311 310 308 309 309 314 317 318 315 311 313 314 317 317 318 319 320 321 323 323 322 320 321 321 320 321 322 324 324 326 329 332
301 300 299 299 298 298 302 308 305 305 306 306 307 307 307 307 308 310 313 316 318 318 313 312 314 315 318 319 320 320 321 322 321 321 321 321 321 320 320 321 323 324 326 328 331
300 298 298 298 298 301 304 306 306 305 307 306 309 310 311 310 309 309 310 315 316 317 317 315 314 317 316 318 319 320 321 322 321 322 321 321 322 321 320 321 322 323 324 325 330
300 299 298 297 299 304 304 306 305 305 311 308 312 312 311 311 311 310 309 311 314 316 316 316 315 316 318 318 319 322 320 319 320 321 323 322 323 321 322 323 324 324 325 325 328
300 299 297 297 299 302 304 303 303 307 305 308 310 312 314 313 314 312 311 309 310 314 314 315 315 315 316 318 318 320 318 318 319 321 322 321 322 322 322 322 322 323 324 325 328
298 299 297 298 300 301 302 304 306 312 305 308 312 313 313 314 313 313 313 312 311 310 313 316 316 316 315 316 317 317 318 319 320 322 324 323 323 323 322 324 324 324 325 326 328
299 298 297 299 301 303 302 305 307 305 304 306 310 312 310 313 314 314 314 313 313 310 310 313 315 316 316 315 318 318 320 323 328 330 326 323 323 323 323 322 323 323 324 327 328
298 297 299 299 300 300 302 305 305 303 306 309 310 310 311 311 313 315 315 315 314 312 313 310 311 314 315 317 317 318 320 322 325 330 330 324 323 322 323 323 323 323 323 327 329
297 299 300 300 300 300 304 305 302 302 304 306 308 309 312 310 310 316 315 315 315 314 316 314 311 312 311 312 314 317 319 319 321 324 326 326 323 323 323 324 323 322 325 326 329
299 300 300 300 300 300 304 303 302 302 305 305 307 307 309 310 309 310 317 316 313 312 316 318 319 315 311 312 313 313 316 319 320 325 327 324 323 323 323 324 323 322 322 324 327
299 301 300 300 300 303 305 302 301 302 302 305 305 306 308 309 308 308 312 314 312 312 314 314 319 317 316 316 314 314 314 316 319 320 323 326 324 323 323 323 323 323 324 325 327
299 301 301 300 303 302 304 302 302 300 301 304 305 306 306 306 305 305 305 308 307 307 309 312 317 319 318 317 317 319 316 316 320 320 321 322 324 323 322 322 325 324 324 324 328
300 300 301 301 303 302 301 301 301 301 301 301 303 304 305 305 304 303 303 306 309 308 310 310 314 318 315 316 317 319 318 318 319 321 322 326 325 321 320 319 319 321 322 323 324
301 301 301 303 302 302 302 301 301 301 301 301 301 302 303 304 303 302 303 306 310 309 308 309 311 313 313 314 314 318 318 319 319 322 322 321 319 319 320 319 320 320 321 323 325
299 300 300 302 302 302 302 303 300 301 302 302 301 301 301 301 301 302 302 303 306 309 309 310 308 309 309 309 310 312 313 314 316 317 320 320 320 320 321 320 319 320 320 320 322
300 299 300 301 301 301 301 302 303 301 300 303 302 302 302 301 303 304 304 305 305 306 309 312 312 309 309 310 310 310 309 310 310 312 315 317 317 317 317 318 319 319 319 319 320
296 297 300 300 300 301 302 301 301 302 302 302 303 303 304 303 303 305 305 306 306 308 310 310 312 312 311 309 310 313 312 311 311 310 312 315 316 316 319 319 320 319 318 318 319

GFSSW_925_thetae_096.txt.gz
Theta_e
307 307 308 308 307 306 304 301 298 298 299 299 297 297 298 299 300 308 310 312 315 317 313 319 319 318 318 319 319 320 321 321 320 321 322 321 320 321 321 320 321 321 323 324 331
306 305 306 306 305 304 305 301 299 297 297 297 297 298 299 300 308 311 313 312 310 311 313 316 319 319 319 318 319 321 321 321 320 321 321 320 320 321 320 320 321 321 325 325 327
304 304 305 305 305 305 305 302 299 297 296 296 297 298 299 303 313 318 313 314 313 312 311 314 319 321 319 319 319 320 321 320 320 321 321 320 320 320 320 319 321 322 323 324 327
302 303 304 305 304 304 302 299 298 296 296 296 297 299 301 310 315 317 310 307 313 315 315 316 319 321 320 319 320 319 320 320 320 319 320 319 320 320 319 320 321 321 323 326 328
302 302 302 302 303 303 301 299 297 295 295 296 297 302 309 309 312 310 311 310 314 317 318 319 319 320 320 319 320 320 320 320 320 319 320 320 320 319 319 319 319 320 323 327 328
302 302 301 301 301 302 301 300 296 295 295 296 301 307 311 311 309 310 309 310 311 316 317 319 319 319 320 320 320 320 320 320 320 321 321 321 321 320 320 320 319 322 325 328 329
302 302 302 301 300 301 301 300 296 295 295 300 305 309 310 309 308 309 310 311 310 312 315 318 318 320 321 320 321 321 320 320 320 320 321 321 321 321 321 321 320 322 324 329 329
301 302 302 301 300 300 299 299 296 295 299 304 306 309 310 308 309 308 309 309 309 311 314 315 318 320 320 320 320 320 320 321 321 321 322 322 322 322 322 321 320 324 326 329 330
300 301 302 301 300 300 299 298 296 296 304 307 309 311 312 310 309 309 308 308 308 309 311 313 315 318 319 319 320 320 321 322 321 322 322 322 321 321 323 324 324 324 325 329 331
301 301 302 301 300 299 299 296 297 304 307 310 311 312 312 310 309 311 310 316 312 309 310 309 309 313 316 318 322 321 321 321 321 321 323 322 321 321 321 325 325 325 325 327 331
300 302 300 300 298 298 299 302 310 311 312 314 316 313 313 310 307 309 310 314 317 314 312 311 309 311 314 317 317 319 321 322 322 322 323 323 322 322 322 322 323 323 325 325 330
301 302 300 298 298 298 299 306 307 306 307 306 306 306 306 306 307 308 310 314 318 319 317 313 310 312 313 315 317 318 319 321 322 322 323 323 322 322 322 322 321 320 323 326 329
299 301 300 298 298 299 304 304 306 306 306 305 306 307 308 309 308 309 310 311 315 318 318 314 313 313 313 313 316 320 321 322 323 322 323 323 323 322 322 322 322 321 323 324 328
299 300 300 298 299 302 304 306 304 305 309 305 309 310 311 311 311 311 311 310 311 314 315 316 316 316 314 315 314 317 320 321 322 323 323 322 325 324 323 323 323 322 323 325 324
299 298 299 298 299 301 303 304 304 307 305 309 312 312 313 312 314 312 311 310 309 313 314 315 315 315 315 315 317 317 318 319 322 323 322 322 325 323 323 322 322 324 325 325 325
297 298 299 299 300 302 302 304 306 309 306 306 312 312 313 314 313 314 314 311 310 309 310 312 314 314 316 316 316 317 318 319 320 321 325 323 325 324 323 324 324 323 324 325 326
296 297 299 300 300 301 303 304 305 304 305 305 309 312 313 314 315 313 315 315 313 311 311 310 312 314 316 316 316 316 318 322 325 327 329 324 325 325 324 324 324 325 326 327 328
296 299 300 300 300 301 302 304 305 304 305 306 309 310 311 311 313 314 315 315 314 313 312 311 311 310 315 316 317 316 318 323 324 330 328 328 328 325 323 323 323 323 324 327 329
297 298 299 300 301 301 302 305 303 304 305 306 307 307 308 310 311 314 316 315 314 315 315 317 316 312 313 316 316 317 319 319 322 323 330 328 327 327 323 324 324 323 324 328 329
297 299 300 300 301 301 302 304 303 303 304 305 306 308 308 309 311 311 315 315 316 313 314 320 320 313 313 314 315 315 317 320 321 324 325 324 328 327 326 325 324 323 324 327 329
297 301 300 301 301 303 303 302 302 303 303 303 305 305 306 310 312 310 311 317 314 313 312 315 317 319 312 311 312 312 313 314 316 320 322 326 326 325 326 325 326 326 326 325 327
298 304 302 301 303 301 302 302 303 303 302 302 303 305 307 308 308 309 309 313 308 308 309 313 314 320 319 316 317 318 314 314 317 319 321 322 323 324 324 322 323 323 323 325 326
299 300 301 301 304 303 302 302 302 302 302 301 301 303 303 305 306 306 306 308 309 309 310 310 314 316 316 315 317 318 319 317 316 317 321 325 324 323 323 320 320 321 321 322 325
300 301 301 303 302 302 304 303 301 301 302 302 301 302 302 304 305 305 304 306 309 308 310 310 308 312 317 314 313 317 318 319 320 323 321 322 320 323 323 321 321 321 322 321 322
299 300 301 304 303 302 302 304 303 302 301 301 300 301 301 303 303 303 304 303 304 309 307 309 307 307 308 309 309 310 313 315 317 318 320 320 320 320 319 319 318 319 320 320 320
300 299 299 300 301 302 302 302 302 304 302 302 302 302 301 301 301 302 302 304 304 305 307 310 311 310 309 308 307 309 309 310 311 312 313 315 317 317 317 317 318 318 318 319 319
297 297 299 300 302 303 302 302 301 301 302 304 303 304 304 303 304 303 306 307 307 308 310 310 310 312 312 310 309 312 310 309 308 309 310 311 313 315 316 317 318 319 320 319 319

GFSSW_925_thetae_099.txt.gz
Theta_e
306 306 306 306 306 306 306 305 299 297 296 296 296 296 297 298 300 304 308 308 312 314 316 315 317 318 318 314 314 315 314 315 316 318 319 318 317 318 317 318 319 318 319 324 337
305 305 306 306 306 305 305 301 299 297 296 296 296 296 297 300 306 309 308 309 310 311 316 314 316 317 314 314 313 314 313 316 317 318 318 319 316 317 318 317 318 319 324 335 336
303 303 304 304 305 305 304 301 300 297 296 295 296 296 298 302 311 314 313 313 312 311 311 311 313 316 316 315 315 314 316 317 318 318 317 316 315 316 316 316 317 319 320 322 331
302 302 302 303 303 303 301 301 300 298 296 295 295 297 300 309 307 314 311 310 309 311 314 314 312 312 317 317 315 315 316 317 317 318 317 316 316 317 316 315 316 316 319 323 324
302 302 302 302 302 301 300 300 300 298 296 296 295 303 305 309 310 307 308 310 310 312 316 314 316 316 317 318 316 316 317 317 317 316 315 316 317 318 316 315 315 316 317 323 324
302 301 302 302 302 301 300 300 299 298 297 296 296 306 310 309 305 308 309 312 312 315 316 316 316 317 318 318 316 317 317 317 316 316 316 318 318 317 317 315 316 318 316 321 324
302 302 301 301 301 301 300 300 299 298 297 296 300 309 310 306 304 304 308 309 310 310 309 313 316 316 316 318 318 318 318 318 318 317 317 316 318 318 317 318 318 317 318 322 323
301 300 301 301 301 301 300 299 298 297 296 296 305 308 310 303 304 308 309 308 308 309 309 311 314 315 317 317 319 318 317 317 318 318 318 317 319 319 319 318 318 318 320 322 325
300 300 299 301 300 300 298 298 297 296 298 302 308 309 312 311 310 309 310 309 307 307 309 310 312 314 316 317 317 317 318 318 318 318 318 318 319 319 318 318 320 320 319 320 324
302 301 301 302 300 299 298 297 299 305 306 307 310 311 312 311 310 309 311 309 312 310 308 308 307 308 313 315 320 318 318 319 319 319 319 318 318 317 317 317 320 319 318 319 324
301 299 299 302 300 299 298 299 305 307 309 313 314 310 311 313 313 307 308 310 309 315 307 307 305 306 306 313 315 317 318 318 318 318 320 319 319 319 317 317 317 319 318 317 324
300 298 296 300 300 299 298 300 306 305 306 306 306 305 307 311 309 308 306 306 310 317 315 309 307 307 307 309 313 315 316 315 316 317 319 320 319 319 318 318 317 316 314 317 331
299 298 298 299 299 298 301 302 305 304 304 304 304 305 306 305 305 304 305 306 308 314 318 316 315 311 309 309 311 311 314 316 316 318 320 321 321 318 319 319 318 318 316 320 332
298 298 298 298 299 300 299 302 305 304 307 305 306 305 305 306 309 308 306 307 308 309 314 317 316 314 309 310 311 312 312 314 317 320 322 321 325 321 320 320 319 319 319 317 331
298 297 297 298 300 300 299 301 304 306 307 304 307 310 308 309 312 311 310 308 308 308 312 313 314 314 315 315 312 313 313 315 316 319 320 322 324 320 320 322 321 317 316 317 331
299 298 297 297 300 300 300 302 304 306 307 305 312 311 311 311 311 312 311 309 309 309 308 309 309 310 312 313 314 315 316 317 317 319 323 323 323 320 321 322 322 321 319 318 330
296 296 297 298 299 300 300 301 305 306 302 302 305 312 312 314 314 313 314 309 309 310 309 308 308 308 310 311 313 314 314 320 323 320 321 320 322 321 320 321 321 321 320 320 330
296 297 296 298 299 299 300 302 305 302 300 303 306 307 312 311 313 314 312 313 311 311 310 309 311 308 310 310 314 315 315 321 323 326 325 322 329 325 323 322 321 321 321 328 329
296 297 298 297 298 300 301 302 302 302 303 303 304 307 308 310 309 313 313 313 313 312 314 314 314 316 310 309 313 316 316 315 320 322 327 327 323 324 324 324 324 320 323 326 329
297 297 298 297 298 300 303 301 302 302 303 302 304 306 307 307 312 313 313 316 315 313 313 318 320 317 317 310 311 315 316 318 319 321 322 323 327 330 325 324 325 324 321 324 329
296 298 298 299 300 301 301 300 300 301 302 302 303 303 305 308 309 313 312 313 311 310 308 314 316 319 318 312 313 314 315 314 317 319 321 321 323 324 325 324 322 322 320 322 326
296 296 301 301 302 301 300 300 300 301 302 303 302 302 302 304 308 308 311 312 309 310 309 310 313 320 319 317 317 314 313 313 315 314 318 319 319 322 322 323 321 322 322 319 319
298 296 300 298 302 299 301 301 300 301 302 303 303 302 302 302 303 308 309 310 309 310 309 308 312 316 322 317 317 318 318 318 313 314 316 318 320 321 322 320 321 322 321 318 319
298 298 297 299 301 302 302 304 304 303 302 302 302 302 301 302 303 306 306 307 307 309 311 309 309 308 311 316 314 311 312 320 318 316 315 314 316 322 323 322 320 317 317 317 319
297 295 299 301 301 301 302 302 302 305 303 302 301 300 300 300 302 303 303 304 305 308 307 308 310 309 309 308 308 308 308 311 316 318 322 320 317 319 322 321 317 315 319 321 321
296 295 296 298 299 301 302 303 302 301 302 304 304 302 301 300 300 301 302 302 307 308 307 308 312 311 311 311 309 309 308 308 309 309 310 311 312 312 314 315 314 322 322 323 324
295 296 297 296 297 297 299 301 303 302 302 302 304 304 303 304 305 305 305 304 306 307 309 310 310 311 314 311 312 310 309 309 308 308 308 308 310 310 309 317 320 319 319 319 321

GFSSW_925_thetae_102.txt.gz
Theta_e
305 305 305 306 305 305 304 302 300 298 297 297 296 296 296 297 299 303 306 304 307 311 312 316 315 315 316 314 313 311 312 312 312 314 316 316 315 316 316 317 317 317 318 318 333
305 305 305 305 304 304 302 301 300 300 300 297 296 296 296 300 305 309 308 309 306 310 311 314 315 316 314 313 313 311 310 313 313 314 316 317 316 315 315 315 316 317 333 335 335
304 304 304 304 304 304 302 300 300 300 300 298 297 297 297 301 311 310 313 311 311 311 313 314 313 316 315 314 313 311 315 314 315 314 315 316 314 314 315 315 315 317 332 335 334
302 303 303 304 304 304 301 300 300 300 300 299 297 298 299 308 301 314 311 309 310 310 311 312 310 310 312 315 314 314 314 313 314 315 315 315 315 315 315 315 315 314 317 333 333
302 302 303 304 304 303 301 300 300 299 298 300 301 302 305 308 307 303 305 308 311 312 314 315 311 311 313 314 315 315 316 315 314 314 314 314 313 314 314 314 314 314 315 326 329
302 301 300 301 302 301 300 300 299 298 297 299 301 304 309 307 303 304 308 305 307 315 316 315 314 314 316 316 315 316 316 315 314 313 314 316 315 316 315 315 315 316 315 315 320
302 302 300 300 299 301 300 299 299 297 297 297 298 306 308 305 301 303 302 303 309 310 308 310 314 314 315 316 315 316 316 315 315 316 315 315 316 315 315 315 316 316 315 313 319
303 302 300 299 300 301 301 300 298 296 296 297 300 308 307 303 303 303 306 306 309 308 307 308 308 310 313 314 316 317 316 317 317 316 317 317 318 317 317 316 316 316 316 314 320
303 302 299 297 299 301 301 299 297 302 301 301 305 308 308 308 311 311 311 309 308 308 307 307 309 311 314 315 316 315 319 317 317 316 316 317 317 316 315 316 317 317 316 316 320
301 301 299 298 296 300 300 301 306 308 307 306 308 309 309 309 310 312 309 310 309 311 306 307 306 306 311 314 318 318 317 317 317 317 316 315 317 315 314 314 315 315 314 315 325
301 300 298 297 296 299 299 302 303 304 304 308 310 310 309 310 312 311 310 306 307 309 311 306 305 306 306 313 315 316 317 317 317 316 315 314 314 315 315 315 313 313 315 315 324
300 300 298 298 297 298 299 300 302 303 304 304 305 305 306 307 309 308 308 305 306 307 312 309 306 306 306 306 310 315 316 316 315 314 314 314 316 316 317 316 316 315 314 315 328
300 297 297 297 297 298 299 298 300 302 304 304 302 303 304 304 304 304 304 303 303 306 312 316 312 308 307 306 307 309 313 314 314 314 313 314 317 319 318 317 318 319 314 319 330
299 299 298 297 298 298 298 298 301 302 304 303 305 302 303 304 305 303 303 303 304 304 307 315 316 316 311 307 307 307 308 310 311 313 314 319 322 319 319 319 319 319 319 319 328
298 299 299 298 298 298 298 300 301 304 303 301 304 304 304 305 308 309 304 302 304 307 307 309 315 317 317 314 308 308 309 311 311 312 315 317 321 318 319 319 319 319 319 316 328
298 298 298 297 297 297 299 300 301 303 302 302 307 308 305 304 309 310 307 305 305 306 306 307 308 309 313 313 312 309 309 310 312 314 318 320 322 319 318 319 319 319 320 317 327
295 297 297 298 297 297 298 299 302 302 300 299 303 304 306 309 308 310 311 308 307 308 308 307 308 307 307 307 308 311 312 315 318 318 319 317 320 319 318 319 319 320 320 319 322
297 296 296 296 296 297 299 302 303 298 299 300 303 304 306 311 313 312 312 308 307 308 308 308 308 307 307 307 309 310 312 315 319 322 320 318 321 323 322 322 321 321 319 324 328
296 296 296 296 296 297 299 301 303 301 302 302 303 304 307 308 311 313 315 313 310 308 311 313 309 313 308 308 308 310 314 314 316 321 321 320 321 321 323 324 323 321 318 326 328
296 296 296 297 297 298 301 300 300 300 300 300 303 303 303 304 307 312 312 314 313 311 310 314 317 316 317 313 308 312 313 316 315 317 319 320 322 324 325 326 322 322 320 324 328
296 294 295 300 298 298 300 299 300 299 299 301 302 303 303 303 303 312 311 311 312 311 311 310 315 316 317 315 310 310 312 314 316 317 317 320 318 323 324 323 323 323 322 320 321
296 296 297 299 300 298 302 301 300 300 300 300 302 303 303 302 302 310 311 309 311 310 313 309 311 317 318 316 315 317 314 316 318 319 318 318 319 322 320 322 324 322 322 321 318
296 294 297 298 296 301 299 300 301 302 302 300 302 302 302 302 302 306 310 308 309 309 309 308 313 314 319 317 316 313 314 319 317 315 318 319 316 322 322 320 319 320 322 320 321
295 295 292 299 299 300 302 301 301 302 303 302 302 301 300 300 301 303 305 306 307 308 306 307 310 307 312 318 315 311 310 316 318 316 316 314 315 324 323 321 319 319 321 320 322
294 294 294 290 295 299 301 301 302 302 303 303 302 302 301 298 299 299 301 302 302 308 310 308 311 310 309 310 310 309 308 309 318 316 316 318 320 323 321 322 322 320 322 320 323
294 297 295 295 297 297 298 300 302 301 302 304 303 303 303 302 302 305 305 305 304 307 308 309 311 310 311 310 311 311 310 308 311 313 312 310 309 313 318 319 320 319 319 320 321
294 295 295 295 295 294 296 299 299 300 301 302 303 303 303 304 304 304 304 303 304 305 306 310 310 310 312 312 312 309 309 309 309 310 312 309 318 315 320 318 317 316 317 319 319

GFSSW_925_thetae_105.txt.gz
Theta_e
305 305 305 305 305 305 305 302 300 301 304 304 302 300 296 297 298 302 306 304 305 308 307 315 314 314 315 314 311 308 313 313 313 313 314 315 315 315 314 314 315 315 320 322 330
305 305 305 305 305 305 305 301 300 300 302 302 302 301 297 298 304 308 307 308 305 308 312 314 314 313 313 313 312 312 310 314 311 312 314 315 315 315 315 313 313 315 331 331 333
305 305 305 305 305 304 303 300 300 301 303 301 303 304 296 300 308 304 313 309 309 310 310 312 313 315 315 312 311 310 314 314 313 313 312 314 313 314 314 314 312 315 321 332 332
304 304 304 303 304 304 301 300 300 300 300 302 303 304 297 307 299 311 311 309 307 311 314 310 309 310 311 314 313 313 311 314 313 313 312 313 313 314 312 315 314 313 320 332 332
303 303 303 303 303 303 300 300 300 300 299 301 302 304 304 306 302 302 302 304 310 311 310 312 309 308 309 310 313 314 314 314 314 313 312 312 312 313 313 312 312 312 313 332 333
302 302 302 302 302 302 300 300 301 299 298 300 302 303 307 304 301 302 306 306 304 312 315 313 312 310 311 311 312 314 315 315 315 315 313 314 314 312 314 313 313 314 313 323 332
302 302 301 300 300 299 297 299 299 298 299 302 303 304 306 303 300 301 302 303 302 303 312 314 314 314 314 315 314 314 315 314 313 314 314 313 313 313 313 314 314 314 314 312 321
302 302 301 298 297 297 296 298 299 301 303 303 303 305 305 300 301 304 305 305 304 306 307 308 308 308 310 311 314 316 315 317 315 314 314 313 318 316 315 315 314 314 314 314 310
302 301 299 297 297 297 296 298 301 305 305 301 304 306 304 304 308 310 310 308 309 307 307 307 307 307 310 313 313 313 316 316 317 315 316 314 315 314 313 315 314 313 313 313 310
301 301 300 298 297 297 296 300 304 306 306 305 308 307 306 306 310 310 309 309 308 307 308 304 304 305 308 311 315 314 316 316 317 316 315 314 315 313 313 313 314 312 311 310 312
300 300 300 300 297 297 297 301 300 302 302 302 304 308 307 308 306 310 309 308 306 307 309 306 303 305 306 310 311 313 315 315 316 315 315 313 313 312 311 312 313 314 312 311 313
300 300 300 299 297 297 299 298 299 300 302 303 303 303 303 304 304 304 305 306 304 305 308 311 307 305 304 305 310 313 315 316 314 314 314 314 315 314 312 314 314 314 314 312 324
299 299 299 298 297 298 297 298 299 300 303 303 303 303 303 303 303 302 304 304 304 304 306 308 312 311 306 305 306 306 310 313 315 314 312 311 313 312 313 315 315 316 315 312 322
298 298 298 298 297 297 296 297 299 301 304 302 303 303 301 302 303 302 302 302 301 303 303 307 308 311 307 305 305 305 305 308 309 312 312 312 314 314 316 316 316 317 315 313 321
298 298 297 297 298 297 296 299 299 302 301 300 302 302 302 302 302 305 301 301 300 302 304 303 315 312 313 314 305 306 307 306 307 308 308 309 317 314 317 318 317 317 315 314 321
297 297 297 297 297 297 297 296 299 302 302 300 302 302 303 303 303 306 301 301 301 300 304 303 307 312 314 314 311 308 307 308 308 308 310 310 313 312 313 317 317 317 316 315 318
297 297 297 297 296 296 296 298 299 300 298 298 299 300 302 306 308 304 306 304 304 304 304 305 305 306 307 307 307 309 309 312 315 317 314 313 318 316 315 316 317 320 319 317 315
297 295 295 295 295 296 297 300 297 298 297 298 298 301 306 306 307 310 310 306 306 306 305 304 304 305 306 306 307 307 309 313 317 318 317 316 319 317 316 321 320 321 319 319 321
296 295 295 296 296 296 298 292 297 300 303 301 300 303 304 304 305 308 313 314 311 309 308 308 307 306 305 306 307 308 310 310 313 317 319 318 319 316 321 322 321 321 321 319 328
296 295 295 295 297 297 299 298 298 300 300 300 299 304 302 304 306 305 313 309 312 312 310 311 315 312 314 306 306 308 309 312 314 316 319 317 319 318 319 323 323 322 322 321 319
295 293 295 297 298 298 295 298 299 299 299 299 300 300 302 304 304 305 312 309 310 309 309 308 311 314 316 313 310 307 310 312 313 313 316 317 316 315 317 323 323 322 321 322 320
295 288 296 296 295 297 298 300 300 300 300 301 300 301 304 303 302 305 312 308 309 309 311 307 309 312 315 316 313 314 309 310 315 317 315 314 314 318 319 322 321 323 323 321 319
294 295 296 297 296 294 300 300 300 300 301 301 301 302 303 303 302 302 303 306 307 308 309 308 310 313 316 315 314 313 311 317 315 315 317 318 317 320 319 318 320 323 324 321 321
293 293 290 299 298 297 299 300 301 301 301 302 302 302 302 300 302 301 301 303 304 306 307 307 309 311 313 311 316 313 309 316 316 315 316 314 318 323 323 322 321 321 320 321 321
293 294 293 289 294 297 299 299 300 301 301 302 302 302 303 301 301 303 304 304 304 309 307 307 310 310 310 310 313 314 310 309 317 316 316 314 313 319 321 319 321 321 321 321 320
293 294 297 295 295 296 296 296 299 298 301 303 303 302 302 302 304 305 305 304 304 305 306 309 311 310 311 311 310 314 312 310 311 316 317 318 310 315 318 317 318 320 322 321 320
294 294 295 293 294 293 295 298 297 298 300 301 301 301 302 302 303 302 302 303 303 304 304 308 311 311 308 310 309 309 311 310 311 312 316 318 316 318 317 317 317 318 319 318 318

GFSSW_925_thetae_108.txt.gz
Theta_e
305 306 306 306 305 305 305 305 301 303 305 305 304 304 302 297 297 302 305 302 304 308 307 314 314 313 314 312 309 306 311 311 312 311 313 314 315 314 313 313 312 314 318 322 326
305 305 305 305 304 304 304 304 300 302 305 305 304 304 300 298 303 307 308 310 306 305 309 314 313 312 311 313 310 310 310 311 310 310 312 314 314 314 314 312 313 313 321 330 331
304 304 304 304 303 303 303 301 299 303 303 304 304 304 301 299 306 302 311 306 308 306 311 312 313 314 314 311 311 310 312 311 311 311 312 313 312 313 314 313 312 314 313 330 331
303 303 303 303 303 302 300 297 299 300 302 303 304 304 301 306 299 309 311 303 303 310 312 309 310 313 313 313 311 311 309 313 312 312 313 312 312 313 311 313 313 312 311 328 330
303 303 303 303 302 301 298 297 296 296 298 302 304 304 301 303 299 301 301 303 311 312 311 310 308 309 309 308 311 312 313 311 311 311 311 311 312 312 312 312 310 310 310 323 329
302 302 302 302 302 300 298 297 295 296 298 302 305 304 305 302 299 301 302 305 305 309 313 310 310 308 309 308 310 312 312 313 312 313 313 315 315 313 313 310 311 313 312 310 328
302 302 302 301 299 297 297 296 296 298 301 304 305 304 304 300 299 300 300 300 301 303 304 306 313 313 312 314 313 313 314 312 312 313 313 312 312 312 312 312 312 312 312 311 314
302 302 300 300 296 296 297 296 299 301 306 304 304 303 302 298 299 302 308 310 309 306 303 305 309 308 311 309 310 314 314 315 314 313 313 314 318 315 313 312 313 313 312 311 310
301 301 300 299 297 297 296 298 301 305 306 301 303 303 301 301 305 309 309 308 308 306 304 307 305 305 307 309 311 311 313 315 315 313 315 314 317 314 313 314 313 312 311 311 309
301 300 300 300 298 297 297 300 302 303 302 305 307 305 303 305 308 306 307 308 306 306 306 303 302 303 305 308 309 312 314 315 315 315 314 314 314 312 312 312 310 310 311 310 310
300 300 300 298 297 297 297 299 298 298 299 299 300 302 301 301 302 303 307 304 305 306 307 303 302 304 304 306 307 309 312 312 314 314 314 314 314 311 310 309 309 309 310 311 310
299 299 299 296 296 297 298 297 298 298 301 301 301 301 301 301 302 301 302 302 305 304 306 309 305 304 302 304 308 310 311 311 312 313 314 314 315 314 311 309 310 311 311 311 311
299 297 297 294 295 296 297 297 298 298 301 301 301 301 302 302 302 302 302 303 303 304 304 306 308 309 306 304 305 307 310 311 313 313 311 312 312 309 309 309 310 311 311 312 312
297 296 297 295 296 296 296 296 296 298 301 300 303 301 301 302 302 301 301 302 302 304 303 304 305 307 308 307 305 305 305 308 309 310 309 309 310 311 311 311 314 313 312 312 311
294 296 297 296 296 296 296 296 296 301 295 299 300 301 299 301 300 302 300 300 300 300 302 305 305 305 307 308 304 305 305 305 305 307 307 307 306 307 311 315 313 314 313 314 310
295 297 297 296 296 296 296 295 298 298 297 298 299 299 299 300 303 303 300 300 300 298 299 301 305 306 306 307 306 305 306 307 306 306 308 306 307 307 308 311 316 319 318 320 318
297 296 296 296 295 296 296 296 294 296 296 298 300 300 299 301 305 305 306 301 301 301 298 299 301 303 306 307 309 308 308 312 313 310 312 308 309 309 311 313 320 320 320 318 323
296 293 294 295 295 296 296 292 290 295 296 300 300 299 301 301 305 305 310 308 304 304 301 299 301 302 303 306 306 309 311 314 316 318 315 313 312 314 312 317 319 320 319 319 318
294 294 294 296 296 296 291 287 295 297 299 300 300 300 302 300 301 307 305 311 313 311 310 305 303 303 303 304 306 307 309 309 310 315 316 314 316 315 318 320 320 320 320 319 320
295 294 294 295 296 296 294 298 296 299 298 300 300 300 300 300 304 306 307 307 309 309 310 310 313 312 309 304 304 307 308 311 310 314 315 313 318 317 322 322 321 321 320 319 319
295 290 296 297 297 294 293 296 297 298 298 301 300 300 301 301 305 305 306 307 305 307 310 309 310 313 314 310 305 305 307 309 310 311 314 315 313 312 314 320 321 322 320 319 318
294 287 296 296 292 295 296 298 300 300 300 300 301 301 302 304 306 305 305 304 303 305 311 309 309 312 313 314 313 310 308 308 312 313 313 313 312 317 319 319 319 320 322 320 317
291 292 295 296 294 291 297 299 300 299 300 301 301 302 302 303 304 302 304 302 302 306 307 308 309 313 315 313 313 312 310 314 309 312 315 316 314 318 319 319 319 321 321 320 317
291 289 289 298 297 297 292 297 299 299 300 300 302 302 302 302 302 302 304 304 304 306 307 307 311 310 312 311 311 315 310 309 311 311 312 314 321 321 320 320 320 320 320 321 319
290 288 294 291 292 296 295 298 298 298 300 301 301 301 302 303 302 303 304 304 304 306 307 307 310 310 308 309 311 314 316 311 316 313 313 314 312 313 321 320 319 320 320 321 319
292 290 294 295 294 295 293 295 298 296 298 301 300 300 300 302 302 303 303 303 304 304 305 307 308 310 308 306 305 312 313 312 312 315 316 314 316 317 317 318 320 322 321 320 319
293 294 292 292 294 292 294 296 295 296 297 299 300 300 300 301 299 300 301 301 302 303 304 305 308 308 308 308 308 311 312 312 312 312 314 314 316 317 317 319 319 318 318 318 318

GFSSW_925_thetae_111.txt.gz
Theta_e
306 305 305 305 304 304 304 303 303 302 304 305 305 305 304 297 297 301 304 302 303 305 306 311 315 312 313 312 310 309 314 314 313 314 314 315 316 315 315 315 315 316 318 321 327
304 304 304 304 304 303 303 301 298 302 303 304 304 304 300 298 303 306 308 306 309 305 308 314 314 314 315 315 313 314 314 312 312 313 314 315 315 315 316 316 316 316 316 325 330
303 303 304 304 303 303 302 298 299 302 302 303 304 305 300 299 305 302 309 305 306 305 311 313 313 313 313 313 314 314 314 312 313 313 313 314 315 314 316 317 317 317 317 317 327
302 302 303 303 302 302 300 297 299 299 297 300 304 305 301 305 300 309 310 302 305 309 309 309 313 315 316 315 313 314 312 314 314 313 314 315 314 315 315 316 316 316 316 315 318
302 302 302 302 302 301 300 296 296 296 297 299 304 305 299 299 299 299 300 304 309 313 312 310 310 312 312 311 312 314 314 313 313 313 314 314 315 315 314 315 315 315 315 315 316
302 302 302 301 301 301 298 296 296 298 299 301 305 305 304 297 298 299 300 300 300 307 312 309 310 310 310 310 311 312 313 313 313 313 313 315 315 315 315 315 315 315 317 317 315
301 301 301 300 300 298 297 297 298 299 301 305 305 304 303 299 298 298 300 307 308 303 304 304 307 312 312 313 312 313 314 314 314 314 315 314 317 316 317 316 316 316 317 316 315
301 301 300 299 298 296 295 296 299 303 305 303 304 302 300 298 301 306 306 308 308 307 303 302 303 306 312 312 309 312 313 315 315 315 315 316 319 318 317 315 317 316 316 316 316
300 300 300 299 297 296 295 297 302 304 301 304 303 301 301 301 306 308 305 308 307 306 304 305 306 308 308 309 309 310 311 314 315 315 316 316 318 317 315 315 316 317 316 316 316
299 299 299 296 294 296 295 297 299 301 299 304 306 304 303 303 302 303 301 304 305 306 305 305 305 306 306 309 309 309 311 313 314 316 316 317 317 316 316 315 317 316 315 316 316
299 299 297 293 293 296 295 296 298 299 298 299 299 300 299 300 300 301 302 303 304 306 308 305 305 306 306 308 308 308 311 313 314 315 316 317 317 317 316 315 315 316 316 316 315
299 299 294 293 295 294 295 297 297 296 299 299 300 300 300 300 301 302 301 301 300 300 306 307 307 307 305 306 307 308 308 309 309 312 313 314 315 315 315 315 315 315 315 314 315
298 298 293 292 295 294 296 296 296 296 299 299 300 301 301 301 302 302 301 302 301 300 302 308 308 308 306 304 305 307 308 308 308 311 314 314 313 311 311 312 313 312 313 314 315
297 298 293 293 294 295 295 295 295 297 297 296 300 301 299 300 302 300 300 302 302 303 301 303 305 308 308 307 306 307 306 307 308 311 310 310 310 311 311 312 314 315 317 320 322
297 295 294 293 294 295 295 295 296 298 292 296 299 300 299 299 299 302 302 301 302 301 302 303 305 306 308 309 307 308 307 308 308 309 309 309 309 309 311 314 314 322 321 322 324
296 294 294 295 295 296 295 295 297 294 292 295 299 297 299 299 302 303 304 303 301 301 301 301 301 305 306 306 307 307 307 306 307 308 308 308 308 309 312 313 322 322 321 321 323
293 293 294 294 295 295 295 294 293 292 295 296 297 298 299 301 302 300 301 305 306 301 302 301 300 301 307 306 307 307 308 309 311 311 312 310 308 310 312 317 323 322 322 322 322
293 293 294 295 295 295 295 293 292 295 295 297 299 299 300 301 299 300 304 305 308 304 303 306 305 300 301 307 308 307 309 310 309 312 311 310 311 312 313 315 322 321 321 322 322
294 294 294 295 295 295 294 293 294 296 298 299 299 299 299 299 300 302 305 307 307 305 309 310 303 301 301 304 311 311 310 311 312 315 316 315 315 316 318 322 322 322 322 321 323
294 293 294 295 295 295 295 297 295 297 298 298 300 299 300 300 301 305 306 305 306 304 304 310 313 310 308 302 305 310 312 313 313 314 315 314 317 316 322 324 323 323 322 321 323
293 293 296 296 297 295 296 296 297 297 298 299 300 300 300 302 303 305 305 303 304 303 306 308 310 312 311 305 303 305 310 311 313 313 312 313 314 316 318 323 325 323 320 320 322
292 291 296 296 294 296 296 297 299 299 299 300 300 300 301 302 304 305 305 303 303 303 306 309 311 313 310 314 314 306 307 310 314 313 314 314 314 319 322 322 322 323 319 318 318
292 292 294 296 293 294 296 298 299 299 300 301 301 302 302 303 303 303 302 303 303 304 306 307 312 314 312 314 312 314 311 310 309 313 313 316 314 320 321 321 323 323 320 320 318
291 290 291 297 297 295 295 296 298 298 299 300 301 301 301 301 302 302 303 303 303 304 306 306 311 312 312 312 311 314 315 315 313 311 311 314 321 323 321 322 322 322 321 321 319
289 290 293 292 295 296 295 296 296 297 297 299 300 299 300 302 301 303 302 302 302 305 303 308 309 310 309 308 311 313 314 314 315 314 310 310 314 322 322 322 321 322 321 321 320
291 292 293 293 294 295 295 295 296 295 297 298 301 299 299 301 301 302 301 301 302 303 303 304 309 309 309 308 306 308 313 313 311 316 316 316 320 319 319 321 322 321 320 321 319
292 293 292 292 294 294 295 295 295 295 296 297 297 297 300 300 299 299 299 300 301 303 303 304 306 307 307 308 308 310 312 313 311 311 314 315 319 320 321 322 321 320 319 317 314

GFSSW_925_thetae_114.txt.gz
Theta_e
304 304 305 305 304 304 303 302 299 300 301 301 299 302 298 297 298 305 306 306 307 305 306 314 315 314 315 316 316 316 317 317 317 317 317 317 317 319 320 320 319 320 321 322 324
304 304 304 304 303 303 303 299 296 299 301 298 297 300 298 297 306 308 308 305 307 307 310 312 315 316 316 317 317 316 317 317 317 316 316 316 317 318 319 320 320 320 320 320 323
303 303 303 303 303 303 301 296 296 296 296 297 299 302 300 300 308 307 308 304 305 306 312 311 312 315 314 316 317 317 318 319 316 315 315 316 316 317 317 318 319 320 320 320 321
303 303 303 302 303 301 296 296 296 296 297 298 302 304 301 306 303 312 308 302 306 312 313 312 314 313 313 314 316 317 317 317 317 316 316 316 317 317 317 317 318 319 319 320 321
302 302 300 301 301 298 296 296 296 297 298 299 302 305 305 304 303 301 299 301 307 314 312 311 312 314 315 316 316 317 317 317 316 317 317 316 317 317 318 318 318 318 319 320 321
301 301 301 300 298 296 295 295 296 298 300 302 304 304 306 304 299 301 301 302 302 302 309 312 311 312 313 314 314 316 316 317 317 317 317 317 317 317 318 318 318 318 319 319 321
301 301 301 296 296 294 295 295 297 301 304 303 303 306 307 305 300 303 307 309 309 309 307 307 311 312 314 314 314 314 314 316 316 316 317 317 319 320 320 320 319 319 320 321 321
300 300 299 295 294 295 295 295 299 304 301 303 304 305 306 300 303 308 308 309 307 309 308 307 305 306 307 311 314 314 315 317 318 317 317 317 321 321 320 321 321 321 321 321 321
300 299 297 293 292 294 294 295 301 302 299 305 307 305 306 305 301 301 302 303 303 307 307 307 306 306 308 309 311 312 312 313 315 317 318 319 320 321 320 320 321 321 321 321 321
300 298 294 292 293 294 294 297 298 300 300 304 306 304 304 302 302 301 302 302 304 306 307 307 308 308 307 308 309 311 312 312 312 313 316 318 319 319 320 320 320 321 321 321 321
299 297 292 292 294 294 298 300 302 304 299 301 300 301 302 301 302 303 302 303 304 305 305 307 307 306 306 307 307 309 310 311 311 313 316 317 318 318 319 319 320 320 320 321 321
299 293 292 293 294 295 298 300 298 298 301 300 301 302 301 301 302 303 301 303 304 304 304 304 306 307 306 306 306 308 309 310 310 310 312 313 313 314 315 317 319 319 319 319 319
296 292 292 293 294 298 297 298 298 298 301 299 301 303 301 300 300 303 302 303 304 304 304 304 305 306 306 308 307 307 308 308 309 310 310 311 313 313 314 315 315 316 316 317 317
295 292 292 293 296 297 297 297 297 299 300 298 301 302 300 301 301 302 302 305 305 304 304 305 304 303 304 308 308 308 308 308 309 309 311 312 313 313 314 314 314 315 317 318 320
294 293 292 292 297 297 297 297 299 302 298 297 299 299 301 301 302 303 302 304 305 305 304 305 305 305 305 305 308 308 308 309 310 310 311 312 312 312 312 312 316 316 319 323 326
293 293 293 296 298 297 297 298 300 301 299 297 298 300 301 301 302 302 302 304 306 306 305 305 305 305 305 306 306 308 309 309 310 310 312 311 312 312 313 315 316 323 325 326 326
293 293 296 298 299 297 298 299 300 297 297 297 298 300 301 301 301 301 304 307 308 309 307 307 304 305 305 305 306 307 309 308 308 310 310 310 311 312 313 317 320 325 326 326 327
293 294 296 296 296 296 298 300 299 296 297 298 299 300 300 300 301 302 304 306 303 305 307 309 307 306 306 305 305 307 308 308 307 309 310 312 312 313 314 316 324 325 325 325 328
294 296 297 297 296 298 300 300 297 298 298 300 301 300 300 301 302 303 304 306 305 306 308 308 311 307 307 305 306 306 309 308 307 309 312 312 313 313 316 315 324 325 325 326 329
297 298 298 296 296 299 301 299 298 298 299 300 301 301 301 301 303 304 305 305 304 303 305 308 309 309 311 305 306 306 307 307 307 308 308 309 312 315 317 321 325 326 325 326 329
296 300 298 297 298 300 301 299 299 299 300 301 301 301 301 302 303 304 306 305 303 303 304 307 311 311 309 305 304 307 310 308 307 309 309 311 313 316 321 324 326 326 324 326 327
296 300 297 297 299 299 300 299 298 300 300 301 301 302 302 303 304 303 306 304 303 303 305 307 309 313 312 313 312 307 309 310 310 310 310 312 313 321 321 324 326 324 323 323 324
297 297 296 297 300 299 299 299 299 299 299 301 302 302 303 303 303 302 303 303 303 303 306 306 310 311 312 314 314 315 308 311 312 311 311 314 312 323 324 324 325 324 323 322 322
297 299 297 298 298 298 299 299 299 297 298 300 301 302 301 302 302 302 303 302 303 302 305 305 311 311 311 314 315 315 315 314 309 313 312 312 313 323 323 325 325 324 324 322 321
297 297 298 300 299 298 298 298 298 298 297 298 301 301 300 301 302 301 302 302 302 302 303 304 306 310 309 309 308 313 316 315 315 310 312 311 311 316 320 323 325 324 324 323 322
297 296 296 296 297 298 297 297 297 297 297 298 300 299 299 301 302 302 302 302 302 301 303 304 305 307 306 308 309 309 314 314 315 316 313 312 311 313 319 322 324 323 322 322 320
295 295 297 296 296 297 297 296 297 296 296 298 299 297 299 301 301 300 301 302 303 303 304 305 305 304 307 307 310 313 314 313 312 314 316 317 315 320 319 322 323 322 321 319 316

GFSSW_925_thetae_117.txt.gz
Theta_e
305 305 305 305 304 304 303 303 297 298 301 301 296 296 297 298 300 310 310 309 309 308 306 311 314 314 316 319 319 320 321 321 321 321 321 321 319 320 320 321 322 323 324 325 327
304 304 304 304 304 303 301 297 296 296 297 297 297 297 297 299 309 312 310 305 305 306 313 314 314 316 318 319 320 320 322 322 322 321 320 320 319 320 319 320 321 322 322 322 323
303 303 304 303 303 299 296 296 296 296 297 297 297 297 299 302 313 314 308 305 303 306 313 313 313 315 317 319 320 320 321 322 322 321 320 319 318 319 319 320 321 322 322 323 323
301 301 301 302 300 296 295 295 295 296 297 298 298 298 300 310 306 311 303 301 307 313 311 310 315 315 316 317 319 320 321 321 321 321 321 319 319 319 319 319 319 321 322 322 322
299 299 300 298 296 294 294 295 295 296 299 299 300 302 308 309 306 303 301 303 303 305 311 312 311 313 317 317 318 319 319 320 320 320 319 320 320 320 320 320 319 319 319 320 321
299 299 298 295 295 293 294 294 295 298 301 303 303 303 311 308 303 304 307 308 308 308 307 306 312 312 312 313 316 318 319 320 320 320 320 320 320 320 320 320 320 320 320 320 320
299 298 295 295 293 293 294 294 295 300 303 301 302 308 310 308 306 310 308 307 311 309 312 311 307 311 313 313 315 315 316 317 318 318 319 319 320 321 321 321 321 321 321 321 320
297 295 294 293 292 294 294 295 298 302 301 303 305 308 309 304 305 304 304 304 304 305 308 311 310 308 309 310 311 311 316 318 318 319 319 319 321 321 323 323 323 322 323 322 322
296 294 294 292 293 294 295 298 299 300 299 304 310 308 308 306 304 304 304 305 305 305 305 309 309 310 308 308 309 310 310 313 316 317 319 320 320 321 321 323 323 323 324 324 324
296 294 293 292 294 294 298 298 300 303 304 305 308 305 305 304 304 304 304 304 306 306 307 308 310 310 309 307 308 308 311 312 314 315 316 318 319 320 321 322 322 323 323 324 324
296 293 292 292 294 298 302 303 304 309 303 303 303 304 304 303 304 304 304 304 306 307 307 308 307 309 308 308 308 307 308 309 311 314 314 315 316 317 319 320 321 322 322 323 324
293 292 292 292 294 299 301 303 300 301 305 303 304 304 303 302 302 303 303 304 304 306 307 307 307 307 307 308 308 307 307 309 309 310 311 312 314 317 317 317 319 320 321 322 322
293 292 292 293 298 301 300 300 300 301 307 302 303 303 302 302 302 303 304 304 304 305 306 306 307 307 306 306 307 308 307 308 308 309 311 311 312 313 314 315 315 316 318 320 321
293 292 292 293 299 300 301 299 300 302 309 302 302 304 302 303 303 303 304 303 304 305 305 306 306 305 306 306 306 307 309 308 307 308 309 311 312 312 315 316 317 317 317 318 318
293 292 292 296 300 301 300 300 301 305 308 301 301 301 302 302 303 304 303 304 305 307 307 307 306 305 306 306 306 305 308 309 309 309 309 309 310 312 314 315 316 316 317 318 320
292 293 296 300 301 300 300 301 303 311 304 300 301 301 302 303 302 303 303 306 306 306 305 306 306 307 305 306 307 307 307 308 310 310 311 311 311 311 313 315 317 319 319 322 325
293 293 298 300 303 300 301 303 307 303 300 300 300 301 302 302 302 302 303 304 306 305 305 305 306 306 307 306 306 307 308 308 311 312 313 311 311 312 314 315 316 322 325 326 327
293 296 298 299 300 301 303 305 306 300 300 301 301 302 301 301 302 302 303 304 304 305 307 306 308 305 306 307 306 306 307 309 310 311 310 309 310 312 314 314 318 323 326 327 328
295 300 301 300 301 301 305 308 302 301 301 301 302 301 301 302 302 303 304 305 304 304 308 308 307 305 307 308 309 306 308 308 310 310 311 310 310 313 314 315 322 325 325 327 329
300 301 301 300 301 303 305 301 301 300 301 302 302 301 302 302 303 303 304 305 305 303 304 307 309 307 308 312 311 307 307 308 310 310 310 310 312 313 314 316 322 323 326 328 330
299 303 301 300 301 304 308 302 301 301 301 302 302 302 302 303 303 304 304 305 304 303 303 306 310 307 309 312 310 307 307 307 308 310 310 310 311 314 315 316 319 323 326 328 329
299 304 300 299 304 302 303 301 299 301 302 302 302 303 303 303 303 303 305 303 303 303 304 307 308 310 308 311 313 314 307 307 308 309 309 309 311 318 317 319 320 326 326 328 327
301 301 298 300 306 302 302 300 300 301 301 301 302 302 303 303 302 303 303 303 303 303 304 304 307 309 309 312 311 313 311 307 309 309 308 311 311 319 319 322 325 326 325 325 324
300 302 300 300 301 303 302 301 300 300 299 300 301 302 302 302 302 303 303 303 303 303 304 304 307 308 311 313 310 313 314 311 310 314 309 310 310 322 319 319 326 324 324 324 324
300 302 302 302 302 301 301 300 300 299 300 301 300 301 302 301 301 302 302 303 302 303 303 304 307 307 305 305 308 312 316 312 314 315 314 313 311 316 320 322 325 324 323 323 323
300 299 299 300 301 301 299 299 299 299 299 299 300 300 301 300 301 302 303 303 302 303 304 305 307 305 306 309 309 314 317 315 311 310 312 311 313 312 317 320 322 324 324 322 321
297 297 300 299 300 300 301 299 298 298 298 298 299 300 300 300 301 302 302 302 303 305 305 306 308 308 306 307 310 318 315 315 316 317 313 315 314 320 316 317 323 323 322 320 318

GFSSW_925_thetae_120.txt.gz
Theta_e
305 305 305 305 305 303 299 296 296 296 296 296 297 297 297 298 299 312 314 308 307 306 310 311 312 314 314 316 319 320 322 321 321 321 321 322 322 321 321 320 320 323 324 329 331
304 304 305 304 303 299 296 295 295 296 296 297 297 298 297 300 310 314 307 306 307 305 314 315 315 315 316 317 319 320 322 321 321 322 323 322 321 320 320 319 320 322 324 324 326
303 304 303 302 298 296 295 295 295 296 296 297 298 298 299 303 315 313 309 307 301 306 310 311 313 315 315 316 318 320 322 321 321 322 323 322 322 320 319 319 320 321 323 322 324
301 300 302 297 296 295 294 295 295 295 297 298 299 300 300 311 310 307 302 303 303 308 314 313 312 313 316 316 316 319 320 321 321 321 322 322 322 321 319 319 320 321 322 323 323
300 301 300 295 295 294 294 294 294 295 298 300 302 302 309 314 307 305 308 308 307 306 306 307 308 312 311 312 316 317 317 318 319 320 321 322 321 321 321 321 321 321 320 320 323
299 300 296 295 293 293 294 294 295 296 299 301 301 302 315 311 305 310 309 308 311 311 311 312 310 308 310 311 312 313 314 316 318 319 320 321 321 321 321 321 321 322 321 320 319
299 299 295 293 293 294 294 295 296 298 300 300 302 308 313 309 308 306 306 306 306 307 309 309 312 312 308 309 312 313 314 315 315 317 318 319 319 321 321 321 322 322 321 321 320
297 295 294 293 293 294 294 299 297 300 299 301 307 312 311 305 306 305 306 306 306 306 306 306 309 311 310 309 309 309 309 311 312 315 317 318 319 320 320 320 321 323 323 322 321
297 295 294 292 293 295 297 301 299 299 300 305 311 311 310 306 306 305 306 305 305 307 307 306 309 309 309 308 307 307 308 308 309 312 312 317 319 319 320 320 321 323 324 323 323
296 294 293 292 293 299 301 302 302 303 304 307 309 307 307 306 304 305 305 305 306 308 308 308 309 309 309 308 308 307 308 310 310 310 313 314 317 319 319 319 321 322 323 324 324
295 293 292 292 295 301 302 304 305 310 305 303 304 305 305 304 303 304 305 304 306 306 306 308 308 308 307 309 309 309 309 308 309 310 311 313 314 316 317 318 319 321 322 323 324
294 293 292 292 297 302 303 304 302 302 306 304 305 306 305 303 304 305 304 305 305 305 306 306 307 307 307 307 307 307 308 309 309 309 309 310 310 313 314 316 318 320 320 322 322
294 292 292 293 299 303 302 301 301 303 309 304 304 304 302 303 303 304 305 304 304 304 305 306 306 307 306 306 307 307 307 308 309 309 309 309 310 311 312 313 315 316 316 316 321
294 292 292 296 300 303 304 301 302 304 312 305 305 306 303 303 304 304 305 304 304 305 307 307 307 307 307 307 307 307 307 307 307 308 307 309 309 311 312 313 314 315 315 316 317
293 292 293 296 303 304 301 301 302 308 313 303 302 302 303 303 303 304 304 304 304 306 306 306 305 304 305 305 305 307 308 307 307 307 309 308 307 309 311 312 313 315 316 317 317
293 292 298 302 304 302 302 303 305 315 311 302 302 302 302 304 303 304 304 305 305 306 306 304 304 305 305 306 307 308 308 306 308 308 308 310 309 309 310 312 313 316 318 318 320
292 293 299 301 306 302 303 306 310 311 302 302 302 302 302 303 303 303 303 304 305 308 306 304 304 305 306 306 306 307 309 307 309 310 309 310 310 311 312 312 313 318 324 326 327
292 295 301 301 302 303 305 309 311 303 301 303 302 302 303 302 303 303 303 303 304 306 305 304 307 305 305 305 309 312 310 309 309 311 309 309 310 311 312 312 313 323 326 327 328
294 301 303 303 302 303 308 312 306 304 302 302 302 302 302 303 303 303 303 304 304 304 307 306 305 304 306 306 307 313 309 307 309 310 311 310 311 312 312 313 313 325 326 326 329
299 302 304 302 302 305 309 309 303 302 301 302 302 302 302 303 303 303 303 304 304 304 306 304 307 305 306 307 310 312 311 310 308 308 309 309 312 312 311 312 315 325 326 330 331
299 304 303 301 302 308 310 306 303 302 301 302 303 303 303 303 303 303 303 304 304 303 303 306 307 306 306 310 313 314 316 312 309 308 309 312 313 313 315 314 321 324 328 330 330
302 306 302 301 307 307 307 303 299 302 302 302 303 303 303 303 303 303 304 303 303 304 303 304 307 306 306 309 309 309 311 313 309 308 310 311 312 313 318 319 321 322 326 329 329
302 304 301 302 308 306 304 302 301 302 301 302 302 302 303 302 303 302 302 302 303 303 304 304 303 308 306 307 306 307 308 310 313 315 311 313 312 312 316 321 319 326 329 328 325
304 305 302 300 303 305 305 303 302 300 301 301 301 302 302 303 303 301 301 302 303 303 303 304 306 307 309 309 308 308 310 312 315 315 311 310 310 310 317 320 327 326 323 324 324
303 304 303 304 304 303 303 302 301 301 300 300 301 301 301 302 303 301 301 301 302 303 303 304 307 307 306 305 306 309 310 315 315 313 316 312 310 311 318 321 325 324 325 324 322
302 302 301 302 303 303 301 302 301 301 300 301 300 300 301 301 301 300 300 301 302 302 302 305 307 307 308 306 306 307 313 317 314 312 312 313 313 317 317 316 319 319 324 323 320
299 299 301 301 302 302 302 301 300 300 300 300 299 299 300 300 300 300 301 301 301 302 304 306 307 308 309 306 307 314 314 313 314 317 318 318 315 316 321 320 316 312 318 319 317

GFSSW_925_thetae_123.txt.gz
Theta_e
304 305 305 305 304 300 296 296 296 296 296 297 297 298 298 298 302 313 313 307 306 307 305 313 313 311 314 312 313 314 316 318 316 317 318 319 319 320 317 318 318 318 323 331 335
304 305 304 303 298 295 295 295 295 295 296 297 298 298 298 299 310 311 307 307 307 304 305 309 309 310 310 311 311 313 315 317 317 318 318 320 319 320 319 316 317 318 324 330 332
303 302 300 298 296 295 294 295 295 295 296 298 299 299 301 303 314 308 304 302 303 305 311 314 311 309 311 311 311 314 316 316 318 318 319 320 319 319 318 314 317 317 321 323 325
301 299 296 296 295 294 294 295 295 296 296 298 299 300 301 312 308 306 309 309 309 306 305 307 305 307 308 309 311 312 313 316 317 317 318 319 319 319 319 318 316 317 318 318 319
301 299 295 295 294 294 295 295 295 296 297 300 300 300 310 315 304 309 307 306 307 307 308 309 307 303 305 306 307 309 310 313 314 314 315 316 317 318 318 318 317 319 318 316 316
300 298 295 294 293 294 294 294 296 297 299 300 301 302 314 310 307 306 306 305 306 306 305 307 308 310 310 304 306 308 309 309 310 311 312 314 315 315 317 317 318 319 318 317 316
299 297 295 294 293 293 294 295 299 297 300 299 303 310 312 306 306 306 305 306 306 306 305 306 305 308 309 308 307 307 306 307 308 311 311 312 313 315 316 317 319 319 319 319 316
299 296 295 293 293 293 296 298 300 298 300 306 308 312 310 306 307 304 305 306 305 305 306 307 307 304 309 308 308 306 304 305 307 308 309 311 314 315 316 317 317 318 319 319 319
297 296 294 293 293 296 300 301 302 301 302 305 311 312 308 307 303 304 305 305 305 305 306 307 306 305 307 306 305 304 303 303 305 307 307 308 308 309 315 316 317 318 319 318 318
297 297 293 292 293 300 301 303 302 302 306 306 308 308 306 305 303 303 304 304 304 304 304 306 305 307 305 304 306 304 303 305 305 306 307 307 308 309 311 313 317 317 318 318 318
297 295 293 292 295 301 302 305 303 307 305 302 303 304 305 304 303 304 304 304 304 304 303 304 302 302 303 304 305 304 305 305 306 306 306 306 307 307 309 311 311 314 316 317 318
296 294 293 292 297 302 302 302 302 301 304 304 305 305 305 303 303 303 305 303 303 302 302 302 303 305 306 306 306 305 305 305 305 306 306 306 306 306 307 309 310 310 311 314 316
295 294 292 293 299 302 301 301 301 303 305 305 304 304 302 302 302 303 304 304 302 301 302 304 306 306 305 304 305 306 306 305 305 305 305 305 305 306 307 309 309 310 310 311 312
294 293 292 296 303 303 302 301 302 304 310 303 304 304 303 302 303 303 305 303 302 302 303 305 305 304 303 303 303 303 305 306 306 307 305 305 304 305 307 309 309 309 310 311 311
294 292 293 297 300 303 301 301 301 306 314 304 302 302 303 302 302 303 304 303 302 302 304 305 304 303 302 303 305 306 306 306 307 307 306 305 304 304 306 308 308 309 309 311 312
293 292 298 302 303 302 301 303 304 312 313 302 302 302 302 303 303 303 303 302 303 305 305 305 303 302 303 304 304 304 307 307 307 307 307 305 306 304 306 307 308 309 310 312 312
292 292 298 301 304 302 301 305 309 311 304 301 302 302 302 303 302 303 302 302 302 305 305 304 303 303 304 302 303 305 309 311 309 308 307 306 307 306 307 308 308 309 311 323 320
292 293 300 302 302 302 304 307 311 306 303 303 302 301 302 302 302 303 302 302 304 303 304 306 306 303 303 302 305 305 307 310 314 309 307 305 307 306 308 309 310 310 324 324 327
293 299 302 303 300 303 305 306 308 305 303 302 301 301 303 303 302 303 302 303 303 303 304 305 304 302 303 303 305 310 313 311 315 311 310 307 307 307 306 309 310 311 325 328 329
299 302 304 302 299 304 306 309 304 302 301 301 302 302 302 302 302 303 303 304 304 304 304 305 304 302 304 304 307 308 311 315 311 309 308 308 307 307 308 310 309 316 325 332 330
298 302 302 300 302 304 305 306 303 302 301 301 303 303 303 303 303 302 303 304 304 304 303 303 304 304 303 304 304 308 310 312 314 311 308 308 307 307 310 311 316 321 331 330 326
300 303 302 302 304 305 305 306 300 302 302 302 302 303 303 303 303 303 303 302 303 303 303 303 301 304 302 302 305 307 307 310 314 316 311 308 306 307 308 319 322 326 330 326 324
300 302 301 302 304 304 304 303 301 301 302 303 303 303 303 302 302 303 302 302 301 303 302 302 300 304 304 303 306 306 306 306 312 314 313 312 309 309 318 323 324 327 326 323 320
301 303 300 299 301 303 305 303 301 300 301 301 301 301 301 302 302 303 302 302 302 302 303 303 303 307 305 304 305 307 307 307 311 316 313 310 313 316 319 322 323 319 316 323 320
301 303 303 302 302 302 303 303 303 302 300 300 301 301 301 301 302 302 301 300 300 302 301 301 301 301 304 305 306 306 308 313 315 315 315 314 314 317 319 321 321 318 314 320 320
299 300 301 300 303 302 303 302 303 302 301 301 301 301 300 299 300 299 299 299 300 300 300 299 301 304 305 306 306 307 312 313 314 314 316 317 316 316 317 314 314 312 311 311 317
299 299 299 302 300 301 301 302 301 301 301 300 299 298 299 300 298 298 298 298 299 299 299 300 302 304 307 307 307 313 313 311 311 311 312 314 316 317 317 314 311 311 311 311 309

GFSSW_925_thetae_126.txt.gz
Theta_e
302 304 304 303 297 295 295 295 295 295 296 297 298 298 298 299 311 312 309 306 306 304 308 305 310 311 310 311 312 311 312 314 315 316 317 317 317 317 317 316 317 314 320 324 330
303 302 300 300 298 296 295 294 295 295 296 297 298 300 300 300 312 305 304 303 303 304 306 311 311 309 307 310 310 310 311 314 314 315 317 318 318 318 317 317 319 316 328 331 331
302 301 299 299 299 296 294 293 295 295 296 297 298 300 301 305 313 309 309 308 307 305 304 304 308 310 308 309 310 310 313 313 314 315 316 317 317 317 317 317 318 316 316 322 328
303 301 298 296 296 294 294 294 295 296 297 297 299 299 304 312 314 307 306 306 307 307 307 306 305 304 303 303 306 307 309 311 312 313 314 314 315 315 315 316 317 316 317 317 318
303 300 298 296 295 294 294 295 296 296 297 298 299 301 311 312 304 305 306 305 306 306 305 305 307 307 308 308 304 304 307 306 307 307 308 309 310 313 313 313 315 316 316 314 315
301 299 295 295 295 294 294 294 296 298 297 299 300 303 312 307 305 305 305 305 305 306 305 304 304 304 308 308 306 304 305 304 304 305 306 309 310 310 312 313 315 316 316 314 314
300 298 296 295 294 293 294 295 296 299 298 300 305 310 311 306 305 305 304 305 305 304 304 305 305 304 305 308 307 306 304 304 303 304 307 307 309 310 311 312 314 316 316 316 315
300 298 295 295 294 293 294 298 299 301 299 303 308 311 310 305 305 304 305 305 304 304 304 305 306 304 304 306 306 307 304 301 302 304 304 307 306 308 308 311 313 315 315 316 316
298 296 295 294 293 293 298 300 302 302 302 304 309 311 308 306 303 303 303 304 304 305 305 305 304 303 305 305 302 302 303 302 304 304 303 304 304 305 305 308 311 314 313 315 316
297 296 294 293 293 295 301 302 303 302 305 305 307 306 306 305 304 303 304 304 304 303 303 302 301 303 301 301 303 303 303 303 303 303 303 304 304 305 305 305 306 308 309 311 315
296 295 294 293 293 300 301 304 301 307 303 303 303 304 304 304 303 303 305 304 302 301 301 302 301 301 302 302 303 303 303 304 304 305 303 303 304 304 304 305 304 306 308 310 312
295 294 293 292 294 301 301 301 301 301 302 304 304 305 305 303 302 302 304 303 301 300 301 300 302 304 303 303 302 302 302 302 303 304 305 304 304 305 304 304 305 305 306 309 308
294 293 293 292 296 301 301 300 301 302 304 307 304 305 303 302 301 302 304 303 301 301 301 301 304 304 303 302 302 302 302 302 304 305 305 304 304 304 305 304 305 306 306 308 308
294 293 292 294 301 302 301 301 301 303 304 304 304 304 302 301 301 302 304 302 301 301 301 304 304 303 302 302 302 302 304 304 304 304 305 304 307 305 305 305 305 306 306 307 307
295 293 292 296 300 302 302 301 301 306 309 305 304 303 301 301 302 302 303 302 301 301 302 302 303 303 302 302 302 303 302 304 305 307 306 305 305 305 305 305 305 305 307 306 308
294 292 294 301 301 302 301 302 304 308 309 303 301 301 301 302 302 302 302 301 303 304 303 303 302 302 302 302 301 301 304 304 305 307 309 307 306 305 304 305 305 306 307 306 306
292 292 299 301 303 302 301 304 310 309 303 301 301 301 301 301 302 302 301 301 302 302 302 302 302 302 302 301 301 302 305 309 307 307 308 306 306 305 305 305 306 307 307 306 306
292 292 297 302 302 301 305 306 310 309 303 302 301 300 301 302 302 302 301 301 302 302 302 304 303 302 302 301 302 303 308 312 313 312 310 310 308 305 304 305 306 307 307 320 327
292 294 301 302 301 303 305 308 305 304 304 302 301 301 303 302 302 302 301 301 302 302 301 303 303 302 301 301 302 308 308 307 313 314 313 310 305 305 305 306 307 308 308 329 327
297 301 303 302 299 305 305 309 305 302 301 302 303 302 302 302 302 301 302 302 303 303 301 302 302 301 302 301 304 307 305 310 310 315 314 306 305 305 306 307 309 314 316 322 324
299 302 302 302 302 304 305 306 302 301 302 302 303 303 302 302 302 301 301 302 303 303 302 301 302 302 301 301 301 302 307 307 310 311 316 313 307 314 317 322 326 327 322 319 323
299 302 302 301 302 304 304 307 302 301 302 302 302 302 301 302 302 301 302 301 302 302 302 301 299 302 301 301 302 302 303 306 312 310 312 314 311 312 313 320 318 319 323 321 318
300 301 301 302 302 304 305 302 301 302 302 302 303 303 302 301 301 302 301 301 300 301 301 300 298 302 300 301 303 302 304 305 309 311 312 313 312 312 315 319 318 316 317 318 316
300 301 298 296 300 303 305 303 301 300 300 300 300 300 300 300 301 302 302 301 300 299 305 301 300 298 300 302 302 303 305 308 312 314 312 313 313 316 318 319 317 315 313 320 316
299 301 299 298 299 302 302 304 303 301 300 300 300 299 300 299 300 300 299 299 299 300 299 299 298 299 299 300 302 304 309 308 312 310 312 312 316 315 316 317 315 313 310 310 313
298 300 299 301 303 301 302 303 303 302 301 300 299 300 298 298 298 298 298 298 298 298 299 297 298 301 302 302 304 307 308 308 310 308 307 307 311 309 313 313 313 312 311 310 308
297 298 299 300 299 301 301 301 301 301 300 300 299 297 298 298 298 297 297 297 297 297 297 298 299 301 303 302 304 312 307 306 309 306 307 307 307 306 315 314 313 312 310 309 307

GFSSW_925_thetae_129.txt.gz
Theta_e
301 301 302 302 301 299 296 295 295 295 296 296 296 298 299 299 310 311 306 305 303 303 306 309 309 309 308 310 310 309 311 313 316 316 316 316 316 316 316 315 316 315 317 322 327
300 302 301 301 299 297 296 295 295 295 296 296 297 298 299 300 310 305 306 306 306 305 304 305 305 309 305 309 308 309 309 313 312 314 315 316 314 315 316 316 316 316 317 318 330
300 302 301 297 298 295 295 294 295 295 296 297 299 299 301 306 313 308 307 306 306 308 306 306 306 309 307 304 309 309 310 311 312 311 312 313 313 314 315 315 315 315 315 315 324
301 302 301 297 295 295 294 294 294 295 298 298 299 299 304 312 313 306 306 306 306 307 307 306 306 305 302 302 304 305 305 306 308 306 305 307 311 310 309 311 313 313 314 314 315
301 302 301 298 295 295 294 293 294 295 299 298 298 300 308 312 303 305 306 305 305 305 305 304 304 305 307 307 305 303 304 304 304 303 303 304 305 307 308 308 309 313 314 313 313
302 302 300 296 295 295 294 294 295 297 299 299 300 304 311 311 305 305 305 305 305 305 304 304 304 304 304 307 306 305 305 305 302 302 301 304 306 307 306 307 309 312 314 313 313
303 300 299 296 295 294 295 295 297 299 301 300 307 310 311 308 305 305 304 305 304 304 303 304 304 304 304 303 306 306 305 302 302 302 302 302 303 303 303 307 307 308 310 313 312
301 300 298 295 295 294 295 296 298 301 301 300 308 310 312 305 305 304 304 304 305 304 304 304 304 303 304 304 304 303 302 300 302 302 302 302 303 304 303 303 304 306 306 307 312
300 300 297 295 294 294 295 298 300 302 301 303 309 310 308 306 304 303 303 303 304 304 304 304 304 302 303 303 300 299 301 302 302 302 302 303 303 304 304 303 304 304 304 306 307
301 298 295 294 294 295 297 300 302 302 304 305 306 307 306 305 304 303 304 303 303 302 302 301 299 300 298 299 302 302 301 301 301 301 302 301 302 303 303 303 303 303 303 303 304
300 297 294 294 294 297 299 303 301 306 304 305 305 304 304 304 302 303 304 303 301 299 300 300 299 302 302 302 302 301 300 300 301 300 301 302 303 303 303 303 303 303 304 304 304
299 296 297 297 294 301 301 300 301 301 300 302 303 303 304 303 301 301 304 302 300 300 300 299 301 302 302 301 301 301 301 301 301 302 304 303 303 303 303 303 303 303 303 303 304
298 300 302 294 295 301 300 300 301 301 300 307 304 304 303 302 301 301 303 302 300 301 300 300 303 303 302 301 301 300 300 301 303 302 302 302 303 303 303 303 303 304 304 304 304
300 300 294 293 299 301 301 301 301 303 304 304 303 303 301 300 301 301 303 301 301 301 301 302 303 302 301 301 301 301 301 302 301 302 304 303 305 304 304 304 304 304 303 303 304
300 296 293 295 302 302 301 301 302 307 304 305 303 303 300 300 301 302 301 301 301 301 301 302 302 301 301 301 300 300 301 301 302 303 303 304 305 305 305 305 304 304 304 303 303
296 294 292 296 301 301 301 300 304 308 306 304 301 301 301 301 301 301 301 301 302 302 301 301 301 301 302 301 300 301 301 303 304 304 306 305 306 307 306 305 305 305 304 304 304
295 293 295 301 302 302 301 304 308 309 303 301 301 302 300 301 301 301 301 302 301 300 300 301 302 301 301 300 300 300 302 308 309 307 307 306 310 308 307 306 305 305 304 304 304
294 292 300 302 302 301 304 306 310 304 303 302 301 300 300 301 301 301 300 300 301 301 300 302 302 301 301 300 300 301 307 308 310 308 308 308 310 307 306 312 312 310 304 314 322
293 293 297 302 302 302 303 303 302 306 303 302 300 300 301 302 302 301 301 300 301 301 300 302 302 301 300 301 300 302 305 304 309 309 311 307 307 304 309 317 318 318 319 324 324
294 299 301 301 302 304 303 306 307 303 301 302 301 301 301 301 301 301 301 301 302 302 299 301 301 300 301 301 303 304 302 306 310 311 309 309 307 308 310 317 316 318 317 315 319
301 302 302 301 303 301 303 305 302 302 302 302 302 302 301 301 301 300 300 301 302 302 301 300 300 301 300 299 299 300 301 304 307 308 312 312 307 308 315 317 317 317 315 319 319
300 302 301 301 304 302 304 307 302 301 302 302 302 301 302 302 301 300 302 300 300 301 300 299 298 301 299 299 300 301 302 303 309 308 308 311 310 313 316 316 317 315 315 318 317
301 301 300 301 302 304 305 302 302 302 302 302 303 303 302 301 301 301 301 300 299 299 300 299 297 300 299 299 299 300 300 303 309 311 312 315 310 310 310 314 316 314 313 315 314
300 299 297 297 299 304 304 301 301 301 300 301 300 300 300 300 300 301 301 300 299 298 302 301 299 295 295 297 299 299 300 304 309 309 310 309 308 313 308 310 313 312 309 307 306
298 300 298 297 300 302 303 303 301 301 300 300 299 299 299 299 299 299 298 298 298 299 298 298 297 299 300 300 299 299 303 306 308 309 309 307 308 310 306 309 313 311 309 308 306
299 300 299 300 300 302 302 303 302 301 300 300 301 299 298 298 298 298 297 297 297 297 297 296 296 299 300 300 300 302 306 304 308 308 304 304 304 303 307 307 312 311 309 307 305
297 297 299 299 299 300 301 302 302 300 300 300 299 298 298 298 297 296 296 295 296 297 296 297 299 300 302 301 302 309 304 302 304 305 304 305 304 303 304 303 303 306 304 303 301